Wetterdaten: Freitag, 27.01.2023
Datum Zeit Temp. Aussen Temp. o. S. Temp +5cm Feuchte Auss Luftdruck Regen Sonnenschein Regendauer Solar Windben Empfang
27.01.2023 00:00 3,7 C 3,3 C 1,1 C 98 % 1023,7 hPa 0,0 l/m 0 min 0 min 0 W/m 12,9 km/h (3 Bft) 91,49 %
27.01.2023 00:02 3,7 C 3,3 C 1,1 C 98 % 1023,7 hPa 0,0 l/m 0 min 0 min 0 W/m 6,4 km/h (2 Bft) 93,55 %
27.01.2023 00:04 3,7 C 3,3 C 1,1 C 98 % 1023,6 hPa 0,0 l/m 0 min 0 min 0 W/m 6,4 km/h (2 Bft) 95,74 %
27.01.2023 00:07 3,6 C 3,3 C 0,6 C 98 % 1023,6 hPa 0,0 l/m 0 min 0 min 0 W/m 6,4 km/h (2 Bft) 95,56 %
27.01.2023 00:08 3,6 C 3,3 C 0,6 C 98 % 1023,6 hPa 0,0 l/m 0 min 0 min 0 W/m 9,7 km/h (2 Bft) 90,91 %
27.01.2023 00:12 3,6 C 2,8 C 0,6 C 98 % 1023,6 hPa 0,0 l/m 0 min 0 min 0 W/m 6,4 km/h (2 Bft) 95,83 %
27.01.2023 00:14 3,6 C 2,8 C 0,6 C 98 % 1023,5 hPa 0,0 l/m 0 min 0 min 0 W/m 3,2 km/h (1 Bft) 100,00 %
27.01.2023 00:16 3,5 C 2,8 C 0,6 C 98 % 1023,6 hPa 0,0 l/m 0 min 0 min 0 W/m 6,4 km/h (2 Bft) 95,65 %
27.01.2023 00:18 3,4 C 2,8 C 0,6 C 98 % 1023,6 hPa 0,0 l/m 0 min 0 min 0 W/m 6,4 km/h (2 Bft) 91,49 %
27.01.2023 00:20 3,4 C 2,8 C 0,6 C 98 % 1023,6 hPa 0,0 l/m 0 min 0 min 0 W/m 6,4 km/h (2 Bft) 94,00 %
27.01.2023 00:22 3,4 C 2,8 C 0,0 C 98 % 1023,6 hPa 0,0 l/m 0 min 0 min 0 W/m 9,7 km/h (2 Bft) 91,67 %
27.01.2023 00:24 3,3 C 2,2 C 0,0 C 98 % 1023,7 hPa 0,0 l/m 0 min 0 min 0 W/m 12,9 km/h (3 Bft) 96,30 %
27.01.2023 00:26 3,3 C 2,2 C 0,0 C 98 % 1023,6 hPa 0,0 l/m 0 min 0 min 0 W/m 6,4 km/h (2 Bft) 93,62 %
27.01.2023 00:28 3,2 C 2,2 C 0,0 C 98 % 1023,6 hPa 0,0 l/m 0 min 0 min 0 W/m 3,2 km/h (1 Bft) 90,00 %
27.01.2023 00:30 3,2 C 2,2 C 0,0 C 98 % 1023,7 hPa 0,0 l/m 0 min 0 min 0 W/m 9,7 km/h (2 Bft) 91,30 %
27.01.2023 00:32 3,1 C 2,2 C 0,0 C 98 % 1023,7 hPa 0,0 l/m 0 min 0 min 0 W/m 9,7 km/h (2 Bft) 93,62 %
27.01.2023 00:34 3,1 C 2,2 C 0,0 C 98 % 1023,7 hPa 0,0 l/m 0 min 0 min 0 W/m 9,7 km/h (2 Bft) 95,74 %
27.01.2023 00:36 3,1 C 2,2 C 0,0 C 98 % 1023,7 hPa 0,0 l/m 0 min 0 min 0 W/m 6,4 km/h (2 Bft) 95,74 %
27.01.2023 00:38 3,0 C 2,2 C 0,0 C 98 % 1023,6 hPa 0,0 l/m 0 min 0 min 0 W/m 12,9 km/h (3 Bft) 93,62 %
27.01.2023 00:40 2,9 C 2,2 C 0,0 C 98 % 1023,7 hPa 0,0 l/m 0 min 0 min 0 W/m 9,7 km/h (2 Bft) 95,65 %
27.01.2023 00:42 2,9 C 2,2 C 0,0 C 98 % 1023,6 hPa 0,0 l/m 0 min 0 min 0 W/m 12,9 km/h (3 Bft) 97,87 %
27.01.2023 00:44 2,9 C 2,8 C 0,0 C 98 % 1023,7 hPa 0,0 l/m 0 min 0 min 0 W/m 12,9 km/h (3 Bft) 95,74 %
27.01.2023 00:46 2,9 C 2,8 C 0,0 C 98 % 1023,6 hPa 0,0 l/m 0 min 0 min 0 W/m 9,7 km/h (2 Bft) 97,87 %
27.01.2023 00:48 2,9 C 2,8 C 0,0 C 98 % 1023,6 hPa 0,0 l/m 0 min 0 min 0 W/m 6,4 km/h (2 Bft) 97,87 %
27.01.2023 00:50 2,9 C 2,8 C 0,0 C 98 % 1023,6 hPa 0,0 l/m 0 min 0 min 0 W/m 12,9 km/h (3 Bft) 93,62 %
27.01.2023 00:52 2,9 C 2,8 C 0,0 C 98 % 1023,6 hPa 0,0 l/m 0 min 0 min 0 W/m 9,7 km/h (2 Bft) 97,87 %
27.01.2023 00:54 2,9 C 2,8 C 0,0 C 98 % 1023,6 hPa 0,0 l/m 0 min 0 min 0 W/m 6,4 km/h (2 Bft) 97,83 %
27.01.2023 00:56 3,0 C 2,8 C 0,0 C 98 % 1023,6 hPa 0,0 l/m 0 min 0 min 0 W/m 9,7 km/h (2 Bft) 97,87 %
27.01.2023 00:58 3,0 C 2,8 C 0,0 C 98 % 1023,6 hPa 0,0 l/m 0 min 0 min 0 W/m 9,7 km/h (2 Bft) 100,00 %
27.01.2023 01:00 3,0 C 2,8 C 0,0 C 98 % 1023,6 hPa 0,0 l/m 0 min 0 min 0 W/m 6,4 km/h (2 Bft) 97,87 %
27.01.2023 01:02 3,1 C 2,8 C 0,6 C 98 % 1023,6 hPa 0,0 l/m 0 min 0 min 0 W/m 3,2 km/h (1 Bft) 95,74 %
27.01.2023 01:04 3,1 C 2,8 C 0,6 C 98 % 1023,6 hPa 0,0 l/m 0 min 0 min 0 W/m 16,1 km/h (3 Bft) 100,00 %
27.01.2023 01:06 3,1 C 2,8 C 0,6 C 98 % 1023,5 hPa 0,0 l/m 0 min 0 min 0 W/m 12,9 km/h (3 Bft) 100,00 %
27.01.2023 01:08 3,1 C 2,8 C 0,6 C 98 % 1023,6 hPa 0,0 l/m 0 min 0 min 0 W/m 16,1 km/h (3 Bft) 100,00 %
27.01.2023 01:10 3,1 C 2,8 C 0,6 C 98 % 1023,5 hPa 0,0 l/m 0 min 0 min 0 W/m 9,7 km/h (2 Bft) 100,00 %
27.01.2023 01:12 3,2 C 3,3 C 0,6 C 98 % 1023,6 hPa 0,0 l/m 0 min 0 min 0 W/m 22,5 km/h (4 Bft) 97,87 %
27.01.2023 01:14 3,2 C 3,3 C 0,6 C 98 % 1023,6 hPa 0,0 l/m 0 min 0 min 0 W/m 19,3 km/h (3 Bft) 100,00 %
27.01.2023 01:16 3,2 C 3,3 C 0,6 C 97 % 1023,5 hPa 0,0 l/m 0 min 0 min 0 W/m 12,9 km/h (3 Bft) 97,87 %
27.01.2023 01:18 3,2 C 3,3 C 0,6 C 97 % 1023,5 hPa 0,0 l/m 0 min 0 min 0 W/m 12,9 km/h (3 Bft) 100,00 %
27.01.2023 01:20 3,2 C 3,3 C 0,6 C 97 % 1023,6 hPa 0,0 l/m 0 min 0 min 0 W/m 9,7 km/h (2 Bft) 100,00 %
27.01.2023 01:22 3,2 C 3,3 C 0,6 C 97 % 1023,6 hPa 0,0 l/m 0 min 0 min 0 W/m 9,7 km/h (2 Bft) 97,87 %
27.01.2023 01:24 3,3 C 3,3 C 0,6 C 97 % 1023,6 hPa 0,0 l/m 0 min 0 min 0 W/m 9,7 km/h (2 Bft) 100,00 %
27.01.2023 01:26 3,3 C 3,3 C 0,6 C 97 % 1023,6 hPa 0,0 l/m 0 min 0 min 0 W/m 16,1 km/h (3 Bft) 97,87 %
27.01.2023 01:28 3,3 C 3,3 C 0,6 C 97 % 1023,6 hPa 0,0 l/m 0 min 0 min 0 W/m 9,7 km/h (2 Bft) 97,87 %
27.01.2023 01:30 3,3 C 3,3 C 0,6 C 97 % 1023,5 hPa 0,0 l/m 0 min 0 min 0 W/m 9,7 km/h (2 Bft) 100,00 %
27.01.2023 01:32 3,3 C 3,3 C 0,6 C 97 % 1023,6 hPa 0,0 l/m 0 min 0 min 0 W/m 9,7 km/h (2 Bft) 100,00 %
27.01.2023 01:34 3,3 C 3,3 C 0,6 C 97 % 1023,6 hPa 0,0 l/m 0 min 0 min 0 W/m 12,9 km/h (3 Bft) 100,00 %
27.01.2023 01:36 3,4 C 3,3 C 0,6 C 96 % 1023,6 hPa 0,0 l/m 0 min 0 min 0 W/m 9,7 km/h (2 Bft) 97,87 %
27.01.2023 01:38 3,4 C 3,3 C 0,6 C 96 % 1023,6 hPa 0,0 l/m 0 min 0 min 0 W/m 19,3 km/h (3 Bft) 97,87 %
27.01.2023 01:40 3,4 C 3,3 C 0,6 C 96 % 1023,6 hPa 0,0 l/m 0 min 0 min 0 W/m 16,1 km/h (3 Bft) 100,00 %
27.01.2023 01:42 3,4 C 3,3 C 0,6 C 96 % 1023,6 hPa 0,0 l/m 0 min 0 min 0 W/m 6,4 km/h (2 Bft) 100,00 %
27.01.2023 01:44 3,4 C 3,3 C 0,6 C 96 % 1023,6 hPa 0,0 l/m 0 min 0 min 0 W/m 12,9 km/h (3 Bft) 100,00 %
27.01.2023 01:46 3,4 C 3,3 C 0,6 C 96 % 1023,6 hPa 0,0 l/m 0 min 0 min 0 W/m 6,4 km/h (2 Bft) 100,00 %
27.01.2023 01:48 3,5 C 3,3 C 0,6 C 96 % 1023,6 hPa 0,0 l/m 0 min 0 min 0 W/m 6,4 km/h (2 Bft) 100,00 %
27.01.2023 01:50 3,4 C 3,3 C 0,6 C 95 % 1023,6 hPa 0,0 l/m 0 min 0 min 0 W/m 6,4 km/h (2 Bft) 100,00 %
27.01.2023 01:52 3,4 C 3,3 C 0,6 C 95 % 1023,7 hPa 0,0 l/m 0 min 0 min 0 W/m 12,9 km/h (3 Bft) 100,00 %
27.01.2023 01:54 3,5 C 3,3 C 0,6 C 95 % 1023,6 hPa 0,0 l/m 0 min 0 min 0 W/m 3,2 km/h (1 Bft) 100,00 %
27.01.2023 01:56 3,5 C 3,3 C 0,6 C 95 % 1023,6 hPa 0,0 l/m 0 min 0 min 0 W/m 9,7 km/h (2 Bft) 100,00 %
27.01.2023 01:58 3,5 C 3,3 C 0,6 C 95 % 1023,6 hPa 0,0 l/m 0 min 0 min 0 W/m 16,1 km/h (3 Bft) 95,74 %
27.01.2023 02:00 3,5 C 3,3 C 0,6 C 95 % 1023,6 hPa 0,0 l/m 0 min 0 min 0 W/m 16,1 km/h (3 Bft) 97,83 %
27.01.2023 02:02 3,5 C 3,3 C 0,6 C 95 % 1023,6 hPa 0,0 l/m 0 min 0 min 0 W/m 6,4 km/h (2 Bft) 97,87 %
27.01.2023 02:04 3,5 C 3,3 C 0,6 C 95 % 1023,6 hPa 0,0 l/m 0 min 0 min 0 W/m 6,4 km/h (2 Bft) 95,74 %
27.01.2023 02:06 3,5 C 3,3 C 0,6 C 94 % 1023,6 hPa 0,0 l/m 0 min 0 min 0 W/m 12,9 km/h (3 Bft) 97,92 %
27.01.2023 02:08 3,5 C 3,3 C 0,6 C 94 % 1023,6 hPa 0,0 l/m 0 min 0 min 0 W/m 16,1 km/h (3 Bft) 95,74 %
27.01.2023 02:10 3,5 C 3,3 C 0,6 C 94 % 1023,6 hPa 0,0 l/m 0 min 0 min 0 W/m 9,7 km/h (2 Bft) 95,74 %
27.01.2023 02:12 3,5 C 3,3 C 0,6 C 94 % 1023,7 hPa 0,0 l/m 0 min 0 min 0 W/m 9,7 km/h (2 Bft) 93,48 %
27.01.2023 02:14 3,6 C 3,3 C 0,6 C 94 % 1023,7 hPa 0,0 l/m 0 min 0 min 0 W/m 12,9 km/h (3 Bft) 95,74 %
27.01.2023 02:16 3,6 C 3,3 C 0,6 C 94 % 1023,7 hPa 0,0 l/m 0 min 0 min 0 W/m 12,9 km/h (3 Bft) 95,74 %
27.01.2023 02:18 3,6 C 3,3 C 0,6 C 94 % 1023,8 hPa 0,0 l/m 0 min 0 min 0 W/m 3,2 km/h (1 Bft) 95,74 %
27.01.2023 02:20 3,6 C 3,3 C 0,6 C 94 % 1023,8 hPa 0,0 l/m 0 min 0 min 0 W/m 9,7 km/h (2 Bft) 95,74 %
27.01.2023 02:22 3,6 C 3,3 C 0,6 C 94 % 1023,8 hPa 0,0 l/m 0 min 0 min 0 W/m 6,4 km/h (2 Bft) 95,74 %
27.01.2023 02:24 3,6 C 3,3 C 0,6 C 94 % 1023,8 hPa 0,0 l/m 0 min 0 min 0 W/m 12,9 km/h (3 Bft) 95,65 %
27.01.2023 02:26 3,6 C 3,3 C 0,6 C 94 % 1023,8 hPa 0,0 l/m 0 min 0 min 0 W/m 9,7 km/h (2 Bft) 95,74 %
27.01.2023 02:28 3,6 C 3,3 C 0,6 C 94 % 1023,9 hPa 0,0 l/m 0 min 0 min 0 W/m 9,7 km/h (2 Bft) 95,74 %
27.01.2023 02:30 3,6 C 3,3 C 0,6 C 93 % 1023,9 hPa 0,0 l/m 0 min 0 min 0 W/m 9,7 km/h (2 Bft) 95,74 %
27.01.2023 02:32 3,6 C 3,3 C 0,6 C 93 % 1023,9 hPa 0,0 l/m 0 min 0 min 0 W/m 9,7 km/h (2 Bft) 97,87 %
27.01.2023 02:34 3,6 C 3,3 C 0,6 C 93 % 1023,8 hPa 0,0 l/m 0 min 0 min 0 W/m 9,7 km/h (2 Bft) 95,74 %
27.01.2023 02:36 3,7 C 3,3 C 0,6 C 93 % 1023,8 hPa 0,0 l/m 0 min 0 min 0 W/m 16,1 km/h (3 Bft) 95,74 %
27.01.2023 02:38 3,7 C 3,3 C 0,6 C 93 % 1023,9 hPa 0,0 l/m 0 min 0 min 0 W/m 16,1 km/h (3 Bft) 95,74 %
27.01.2023 02:40 3,7 C 3,3 C 0,6 C 93 % 1023,9 hPa 0,0 l/m 0 min 0 min 0 W/m 19,3 km/h (3 Bft) 97,83 %
27.01.2023 02:42 3,7 C 3,3 C 0,6 C 93 % 1023,9 hPa 0,0 l/m 0 min 0 min 0 W/m 9,7 km/h (2 Bft) 95,74 %
27.01.2023 02:44 3,7 C 3,3 C 0,6 C 93 % 1023,9 hPa 0,0 l/m 0 min 0 min 0 W/m 6,4 km/h (2 Bft) 76,60 %
27.01.2023 02:46 3,7 C 3,3 C 0,6 C 93 % 1023,9 hPa 0,0 l/m 0 min 0 min 0 W/m 9,7 km/h (2 Bft) 80,43 %
27.01.2023 02:48 3,7 C 3,3 C 0,6 C 93 % 1024,0 hPa 0,0 l/m 0 min 0 min 0 W/m 6,4 km/h (2 Bft) 97,87 %
27.01.2023 02:50 3,7 C 3,3 C 0,6 C 93 % 1024,0 hPa 0,0 l/m 0 min 0 min 0 W/m 9,7 km/h (2 Bft) 93,62 %
27.01.2023 02:52 3,7 C 3,3 C 0,6 C 93 % 1024,0 hPa 0,0 l/m 0 min 0 min 0 W/m 12,9 km/h (3 Bft) 93,48 %
27.01.2023 02:54 3,7 C 3,3 C 0,6 C 93 % 1024,0 hPa 0,0 l/m 0 min 0 min 0 W/m 16,1 km/h (3 Bft) 100,00 %
27.01.2023 02:56 3,7 C 3,3 C 0,6 C 93 % 1024,0 hPa 0,0 l/m 0 min 0 min 0 W/m 22,5 km/h (4 Bft) 100,00 %
27.01.2023 02:58 3,7 C 3,3 C 0,6 C 93 % 1024,0 hPa 0,0 l/m 0 min 0 min 0 W/m 16,1 km/h (3 Bft) 97,87 %
27.01.2023 03:00 3,7 C 3,3 C 0,6 C 93 % 1024,0 hPa 0,0 l/m 0 min 0 min 0 W/m 12,9 km/h (3 Bft) 100,00 %
27.01.2023 03:02 3,7 C 3,3 C 0,6 C 93 % 1024,0 hPa 0,0 l/m 0 min 0 min 0 W/m 32,2 km/h (5 Bft) 100,00 %
27.01.2023 03:04 3,7 C 3,3 C 0,6 C 93 % 1024,0 hPa 0,0 l/m 0 min 0 min 0 W/m 19,3 km/h (3 Bft) 97,83 %
27.01.2023 03:06 3,7 C 3,3 C 0,6 C 92 % 1024,0 hPa 0,0 l/m 0 min 0 min 0 W/m 16,1 km/h (3 Bft) 100,00 %
27.01.2023 03:08 3,7 C 3,3 C 0,6 C 92 % 1024,0 hPa 0,0 l/m 0 min 0 min 0 W/m 22,5 km/h (4 Bft) 97,87 %
27.01.2023 03:10 3,7 C 3,3 C 0,6 C 92 % 1024,0 hPa 0,0 l/m 0 min 0 min 0 W/m 16,1 km/h (3 Bft) 95,74 %
27.01.2023 03:12 3,7 C 3,3 C 0,6 C 92 % 1024,1 hPa 0,0 l/m 0 min 0 min 0 W/m 12,9 km/h (3 Bft) 97,87 %
27.01.2023 03:14 3,7 C 3,3 C 0,6 C 92 % 1024,1 hPa 0,0 l/m 0 min 0 min 0 W/m 16,1 km/h (3 Bft) 95,74 %
27.01.2023 03:16 3,7 C 3,3 C 0,6 C 92 % 1024,0 hPa 0,0 l/m 0 min 0 min 0 W/m 12,9 km/h (3 Bft) 95,65 %
27.01.2023 03:18 3,7 C 3,3 C 0,6 C 92 % 1024,0 hPa 0,0 l/m 0 min 0 min 0 W/m 9,7 km/h (2 Bft) 95,74 %
27.01.2023 03:20 3,7 C 3,3 C 0,6 C 92 % 1024,0 hPa 0,0 l/m 0 min 0 min 0 W/m 9,7 km/h (2 Bft) 95,74 %
27.01.2023 03:22 3,7 C 3,3 C 0,6 C 92 % 1024,0 hPa 0,0 l/m 0 min 0 min 0 W/m 9,7 km/h (2 Bft) 95,74 %
27.01.2023 03:24 3,7 C 3,3 C 0,6 C 92 % 1024,0 hPa 0,0 l/m 0 min 0 min 0 W/m 6,4 km/h (2 Bft) 95,74 %
27.01.2023 03:26 3,7 C 3,3 C 0,6 C 92 % 1024,1 hPa 0,0 l/m 0 min 0 min 0 W/m 12,9 km/h (3 Bft) 95,74 %
27.01.2023 03:28 3,7 C 3,3 C 0,6 C 92 % 1024,1 hPa 0,0 l/m 0 min 0 min 0 W/m 16,1 km/h (3 Bft) 93,48 %
27.01.2023 03:30 3,7 C 3,3 C 0,6 C 92 % 1024,0 hPa 0,0 l/m 0 min 0 min 0 W/m 9,7 km/h (2 Bft) 97,87 %
27.01.2023 03:32 3,7 C 3,3 C 0,6 C 92 % 1024,1 hPa 0,0 l/m 0 min 0 min 0 W/m 12,9 km/h (3 Bft) 95,74 %
27.01.2023 03:34 3,7 C 3,3 C 0,6 C 92 % 1024,1 hPa 0,0 l/m 0 min 0 min 0 W/m 12,9 km/h (3 Bft) 95,74 %
27.01.2023 03:36 3,7 C 3,3 C 0,6 C 92 % 1024,1 hPa 0,0 l/m 0 min 0 min 0 W/m 12,9 km/h (3 Bft) 95,74 %
27.01.2023 03:38 3,7 C 3,3 C 0,6 C 92 % 1024,1 hPa 0,0 l/m 0 min 0 min 0 W/m 16,1 km/h (3 Bft) 97,87 %
27.01.2023 03:40 3,7 C 3,3 C 0,6 C 92 % 1024,1 hPa 0,0 l/m 0 min 0 min 0 W/m 19,3 km/h (3 Bft) 97,87 %
27.01.2023 03:42 3,7 C 3,3 C 0,0 C 92 % 1024,0 hPa 0,0 l/m 0 min 0 min 0 W/m 19,3 km/h (3 Bft) 97,14 %
27.01.2023 03:44 3,7 C 3,3 C 0,0 C 92 % 1024,1 hPa 0,0 l/m 0 min 0 min 0 W/m 25,7 km/h (4 Bft) 98,00 %
27.01.2023 03:46 3,7 C 3,3 C 0,0 C 92 % 1024,1 hPa 0,0 l/m 0 min 0 min 0 W/m 22,5 km/h (4 Bft) 95,74 %
27.01.2023 03:48 3,7 C 3,3 C 0,0 C 92 % 1024,1 hPa 0,0 l/m 0 min 0 min 0 W/m 19,3 km/h (3 Bft) 93,48 %
27.01.2023 03:50 3,7 C 3,3 C 0,0 C 92 % 1024,1 hPa 0,0 l/m 0 min 0 min 0 W/m 22,5 km/h (4 Bft) 95,74 %
27.01.2023 03:52 3,7 C 3,3 C 0,0 C 92 % 1024,1 hPa 0,0 l/m 0 min 0 min 0 W/m 19,3 km/h (3 Bft) 93,62 %
27.01.2023 03:54 3,7 C 3,3 C 0,0 C 91 % 1024,1 hPa 0,0 l/m 0 min 0 min 0 W/m 16,1 km/h (3 Bft) 95,74 %
27.01.2023 03:56 3,6 C 3,3 C 0,0 C 91 % 1024,1 hPa 0,0 l/m 0 min 0 min 0 W/m 16,1 km/h (3 Bft) 93,62 %
27.01.2023 03:58 3,6 C 3,3 C 0,0 C 91 % 1024,1 hPa 0,0 l/m 0 min 0 min 0 W/m 12,9 km/h (3 Bft) 95,74 %
27.01.2023 04:00 3,6 C 3,3 C 0,0 C 91 % 1024,2 hPa 0,0 l/m 0 min 0 min 0 W/m 12,9 km/h (3 Bft) 95,65 %
27.01.2023 04:02 3,6 C 2,8 C 0,0 C 91 % 1024,2 hPa 0,0 l/m 0 min 0 min 0 W/m 16,1 km/h (3 Bft) 95,00 %
27.01.2023 04:07 3,6 C 2,8 C 0,0 C 91 % 1024,2 hPa 0,0 l/m 0 min 0 min 0 W/m 22,5 km/h (4 Bft) 100,00 %
27.01.2023 04:08 3,6 C 2,8 C 0,0 C 91 % 1024,2 hPa 0,0 l/m 0 min 0 min 0 W/m 12,9 km/h (3 Bft) 100,00 %
27.01.2023 04:10 3,6 C 2,8 C 0,0 C 91 % 1024,2 hPa 0,0 l/m 0 min 0 min 0 W/m 25,7 km/h (4 Bft) 100,00 %
27.01.2023 04:12 3,6 C 2,8 C 0,0 C 91 % 1024,3 hPa 0,0 l/m 0 min 0 min 0 W/m 9,7 km/h (2 Bft) 95,65 %
27.01.2023 04:14 3,6 C 2,8 C 0,0 C 91 % 1024,4 hPa 0,0 l/m 0 min 0 min 0 W/m 16,1 km/h (3 Bft) 97,87 %
27.01.2023 04:16 3,6 C 2,8 C 0,0 C 91 % 1024,3 hPa 0,0 l/m 0 min 0 min 0 W/m 9,7 km/h (2 Bft) 97,87 %
27.01.2023 04:18 3,5 C 2,8 C 0,0 C 91 % 1024,4 hPa 0,0 l/m 0 min 0 min 0 W/m 12,9 km/h (3 Bft) 97,87 %
27.01.2023 04:20 3,5 C 2,8 C 0,0 C 91 % 1024,4 hPa 0,0 l/m 0 min 0 min 0 W/m 9,7 km/h (2 Bft) 95,74 %
27.01.2023 04:22 3,4 C 2,8 C 0,0 C 91 % 1024,4 hPa 0,0 l/m 0 min 0 min 0 W/m 16,1 km/h (3 Bft) 100,00 %
27.01.2023 04:24 3,4 C 2,8 C 0,0 C 91 % 1024,4 hPa 0,0 l/m 0 min 0 min 0 W/m 25,7 km/h (4 Bft) 100,00 %
27.01.2023 04:26 3,3 C 2,8 C 0,0 C 91 % 1024,5 hPa 0,0 l/m 0 min 0 min 0 W/m 16,1 km/h (3 Bft) 100,00 %
27.01.2023 04:28 3,3 C 2,8 C 0,0 C 92 % 1024,5 hPa 0,0 l/m 0 min 0 min 0 W/m 9,7 km/h (2 Bft) 100,00 %
27.01.2023 04:30 3,3 C 2,8 C 0,0 C 92 % 1024,5 hPa 0,0 l/m 0 min 0 min 0 W/m 9,7 km/h (2 Bft) 100,00 %
27.01.2023 04:32 3,2 C 2,8 C 0,0 C 92 % 1024,5 hPa 0,0 l/m 0 min 0 min 0 W/m 12,9 km/h (3 Bft) 95,74 %
27.01.2023 04:34 3,2 C 2,2 C 0,0 C 92 % 1024,6 hPa 0,0 l/m 0 min 0 min 0 W/m 12,9 km/h (3 Bft) 97,87 %
27.01.2023 04:36 3,2 C 2,2 C 0,0 C 92 % 1024,6 hPa 0,0 l/m 0 min 0 min 0 W/m 12,9 km/h (3 Bft) 97,87 %
27.01.2023 04:38 3,1 C 2,8 C 0,0 C 92 % 1024,6 hPa 0,0 l/m 0 min 0 min 0 W/m 25,7 km/h (4 Bft) 100,00 %
27.01.2023 04:40 3,1 C 2,8 C 0,0 C 92 % 1024,6 hPa 0,0 l/m 0 min 0 min 0 W/m 12,9 km/h (3 Bft) 100,00 %
27.01.2023 04:42 3,1 C 2,8 C 0,0 C 92 % 1024,6 hPa 0,0 l/m 0 min 0 min 0 W/m 25,7 km/h (4 Bft) 82,98 %
27.01.2023 04:44 3,1 C 2,8 C 0,0 C 92 % 1024,7 hPa 0,0 l/m 0 min 0 min 0 W/m 16,1 km/h (3 Bft) 57,14 %
27.01.2023 04:46 3,0 C 2,8 C 0,0 C 92 % 1024,6 hPa 0,0 l/m 0 min 0 min 0 W/m 19,3 km/h (3 Bft) 100,00 %
27.01.2023 04:48 3,0 C 2,8 C 0,0 C 92 % 1024,6 hPa 0,0 l/m 0 min 0 min 0 W/m 38,6 km/h (5 Bft) 97,87 %
27.01.2023 04:50 3,0 C 2,8 C 0,0 C 92 % 1024,6 hPa 0,0 l/m 0 min 0 min 0 W/m 12,9 km/h (3 Bft) 95,74 %
27.01.2023 04:52 3,0 C 2,8 C 0,0 C 92 % 1024,6 hPa 0,0 l/m 0 min 0 min 0 W/m 22,5 km/h (4 Bft) 95,74 %
27.01.2023 04:54 3,0 C 2,8 C 0,0 C 92 % 1024,6 hPa 0,0 l/m 0 min 0 min 0 W/m 12,9 km/h (3 Bft) 95,65 %
27.01.2023 04:56 3,0 C 2,8 C 0,0 C 92 % 1024,6 hPa 0,0 l/m 0 min 0 min 0 W/m 12,9 km/h (3 Bft) 95,74 %
27.01.2023 04:58 3,0 C 2,2 C 0,0 C 92 % 1024,7 hPa 0,0 l/m 0 min 0 min 0 W/m 12,9 km/h (3 Bft) 95,74 %
27.01.2023 05:00 3,0 C 2,2 C 0,0 C 92 % 1024,6 hPa 0,0 l/m 0 min 0 min 0 W/m 22,5 km/h (4 Bft) 95,74 %
27.01.2023 05:02 3,0 C 2,2 C 0,0 C 92 % 1024,7 hPa 0,0 l/m 0 min 0 min 0 W/m 6,4 km/h (2 Bft) 93,62 %
27.01.2023 05:04 3,0 C 2,2 C 0,0 C 92 % 1024,7 hPa 0,0 l/m 0 min 0 min 0 W/m 19,3 km/h (3 Bft) 97,87 %
27.01.2023 05:06 3,0 C 2,2 C 0,0 C 92 % 1024,7 hPa 0,0 l/m 0 min 0 min 0 W/m 16,1 km/h (3 Bft) 97,83 %
27.01.2023 05:08 3,0 C 2,2 C 0,0 C 92 % 1024,7 hPa 0,0 l/m 0 min 0 min 0 W/m 9,7 km/h (2 Bft) 97,87 %
27.01.2023 05:10 3,0 C 2,2 C 0,0 C 92 % 1024,6 hPa 0,0 l/m 0 min 0 min 0 W/m 6,4 km/h (2 Bft) 97,87 %
27.01.2023 05:12 3,0 C 2,2 C 0,0 C 92 % 1024,6 hPa 0,0 l/m 0 min 0 min 0 W/m 12,9 km/h (3 Bft) 95,74 %
27.01.2023 05:14 3,0 C 2,2 C 0,0 C 92 % 1024,7 hPa 0,0 l/m 0 min 0 min 0 W/m 22,5 km/h (4 Bft) 97,87 %
27.01.2023 05:16 3,0 C 2,2 C 0,0 C 92 % 1024,7 hPa 0,0 l/m 0 min 0 min 0 W/m 12,9 km/h (3 Bft) 97,87 %
27.01.2023 05:18 3,0 C 2,2 C 0,0 C 92 % 1024,7 hPa 0,0 l/m 0 min 0 min 0 W/m 12,9 km/h (3 Bft) 97,83 %
27.01.2023 05:20 3,0 C 2,2 C 0,0 C 92 % 1024,7 hPa 0,0 l/m 0 min 0 min 0 W/m 9,7 km/h (2 Bft) 97,87 %
27.01.2023 05:22 3,0 C 2,2 C 0,0 C 92 % 1024,7 hPa 0,0 l/m 0 min 0 min 0 W/m 9,7 km/h (2 Bft) 95,74 %
27.01.2023 05:24 3,0 C 2,2 C 0,0 C 92 % 1024,7 hPa 0,0 l/m 0 min 0 min 0 W/m 9,7 km/h (2 Bft) 97,87 %
27.01.2023 05:26 3,0 C 2,2 C 0,0 C 92 % 1024,7 hPa 0,0 l/m 0 min 0 min 0 W/m 16,1 km/h (3 Bft) 97,87 %
27.01.2023 05:28 3,0 C 2,2 C 0,0 C 92 % 1024,7 hPa 0,0 l/m 0 min 0 min 0 W/m 9,7 km/h (2 Bft) 97,87 %
27.01.2023 05:30 3,0 C 2,2 C 0,0 C 92 % 1024,8 hPa 0,0 l/m 0 min 0 min 0 W/m 16,1 km/h (3 Bft) 97,87 %
27.01.2023 05:32 3,0 C 2,2 C 0,0 C 92 % 1024,8 hPa 0,0 l/m 0 min 0 min 0 W/m 6,4 km/h (2 Bft) 100,00 %
27.01.2023 05:34 3,0 C 2,2 C 0,0 C 92 % 1024,8 hPa 0,0 l/m 0 min 0 min 0 W/m 16,1 km/h (3 Bft) 100,00 %
27.01.2023 05:36 3,0 C 2,2 C 0,0 C 93 % 1024,8 hPa 0,0 l/m 0 min 0 min 0 W/m 16,1 km/h (3 Bft) 97,87 %
27.01.2023 05:38 3,0 C 2,2 C 0,0 C 93 % 1024,8 hPa 0,0 l/m 0 min 0 min 0 W/m 12,9 km/h (3 Bft) 97,87 %
27.01.2023 05:40 3,0 C 2,2 C 0,0 C 93 % 1024,8 hPa 0,0 l/m 0 min 0 min 0 W/m 6,4 km/h (2 Bft) 100,00 %
27.01.2023 05:42 3,0 C 2,2 C 0,0 C 93 % 1024,8 hPa 0,0 l/m 0 min 0 min 0 W/m 9,7 km/h (2 Bft) 100,00 %
27.01.2023 05:44 3,0 C 2,2 C 0,0 C 93 % 1024,8 hPa 0,0 l/m 0 min 0 min 0 W/m 19,3 km/h (3 Bft) 97,83 %
27.01.2023 05:46 3,1 C 2,2 C 0,0 C 93 % 1024,8 hPa 0,0 l/m 0 min 0 min 0 W/m 22,5 km/h (4 Bft) 93,62 %
27.01.2023 05:48 3,1 C 2,2 C 0,0 C 93 % 1024,9 hPa 0,0 l/m 0 min 0 min 0 W/m 9,7 km/h (2 Bft) 97,87 %
27.01.2023 05:50 3,1 C 2,2 C 0,0 C 93 % 1024,9 hPa 0,0 l/m 0 min 0 min 0 W/m 9,7 km/h (2 Bft) 97,87 %
27.01.2023 05:52 3,1 C 2,2 C 0,0 C 93 % 1024,8 hPa 0,0 l/m 0 min 0 min 0 W/m 16,1 km/h (3 Bft) 97,87 %
27.01.2023 05:54 3,0 C 2,2 C 0,0 C 93 % 1024,7 hPa 0,0 l/m 0 min 2 min 0 W/m 9,7 km/h (2 Bft) 95,74 %
27.01.2023 05:56 3,0 C 2,2 C 0,0 C 93 % 1024,8 hPa 0,0 l/m 0 min 0 min 0 W/m 12,9 km/h (3 Bft) 95,74 %
27.01.2023 05:58 3,0 C 2,2 C 0,0 C 93 % 1024,9 hPa 0,0 l/m 0 min 0 min 0 W/m 3,2 km/h (1 Bft) 97,83 %
27.01.2023 06:00 3,0 C 2,2 C 0,0 C 93 % 1024,9 hPa 0,0 l/m 0 min 0 min 0 W/m 6,4 km/h (2 Bft) 97,87 %
27.01.2023 06:02 2,9 C 2,2 C 0,0 C 93 % 1024,9 hPa 0,0 l/m 0 min 0 min 0 W/m 19,3 km/h (3 Bft) 95,74 %
27.01.2023 06:04 2,9 C 2,2 C -0,6 C 94 % 1024,9 hPa 0,0 l/m 0 min 0 min 0 W/m 16,1 km/h (3 Bft) 97,87 %
27.01.2023 06:07 2,9 C 2,2 C -0,6 C 93 % 1024,9 hPa 0,0 l/m 0 min 0 min 0 W/m 6,4 km/h (2 Bft) 98,57 %
27.01.2023 06:08 2,9 C 2,2 C -0,6 C 93 % 1024,9 hPa 0,0 l/m 0 min 0 min 0 W/m 6,4 km/h (2 Bft) 95,83 %
27.01.2023 06:10 2,9 C 2,2 C -0,6 C 94 % 1024,9 hPa 0,0 l/m 0 min 0 min 0 W/m 12,9 km/h (3 Bft) 95,65 %
27.01.2023 06:12 2,9 C 2,2 C -0,6 C 94 % 1024,8 hPa 0,0 l/m 0 min 0 min 0 W/m 12,9 km/h (3 Bft) 97,87 %
27.01.2023 06:14 2,9 C 2,2 C -0,6 C 94 % 1024,9 hPa 0,0 l/m 0 min 0 min 0 W/m 6,4 km/h (2 Bft) 94,44 %
27.01.2023 06:16 2,8 C 2,2 C -0,6 C 94 % 1024,9 hPa 0,0 l/m 0 min 0 min 0 W/m 6,4 km/h (2 Bft) 97,87 %
27.01.2023 06:18 2,8 C 2,2 C -0,6 C 94 % 1024,9 hPa 0,0 l/m 0 min 0 min 0 W/m 9,7 km/h (2 Bft) 97,87 %
27.01.2023 06:20 2,8 C 2,2 C -0,6 C 94 % 1024,9 hPa 0,0 l/m 0 min 2 min 0 W/m 9,7 km/h (2 Bft) 97,83 %
27.01.2023 06:22 2,8 C 2,2 C -0,6 C 94 % 1024,9 hPa 0,0 l/m 0 min 0 min 0 W/m 9,7 km/h (2 Bft) 97,87 %
27.01.2023 06:24 2,8 C 2,2 C -0,6 C 94 % 1024,9 hPa 0,0 l/m 0 min 0 min 0 W/m 12,9 km/h (3 Bft) 97,87 %
27.01.2023 06:26 2,8 C 2,2 C -0,6 C 94 % 1024,9 hPa 0,0 l/m 0 min 0 min 0 W/m 9,7 km/h (2 Bft) 97,87 %
27.01.2023 06:28 2,8 C 2,2 C -0,6 C 94 % 1024,9 hPa 0,0 l/m 0 min 2 min 0 W/m 9,7 km/h (2 Bft) 95,74 %
27.01.2023 06:30 2,8 C 2,2 C -0,6 C 94 % 1024,9 hPa 0,0 l/m 0 min 0 min 0 W/m 12,9 km/h (3 Bft) 95,74 %
27.01.2023 06:32 2,8 C 2,2 C -0,6 C 94 % 1025,0 hPa 0,0 l/m 0 min 0 min 0 W/m 19,3 km/h (3 Bft) 95,65 %
27.01.2023 06:34 2,8 C 2,2 C -0,6 C 94 % 1024,9 hPa 0,0 l/m 0 min 2 min 0 W/m 3,2 km/h (1 Bft) 48,72 %
27.01.2023 06:36 2,8 C 2,2 C -0,6 C 94 % 1024,9 hPa 0,0 l/m 0 min 2 min 0 W/m 12,9 km/h (3 Bft) 97,67 %
27.01.2023 06:38 2,8 C 2,2 C -0,6 C 94 % 1024,9 hPa 0,0 l/m 0 min 0 min 0 W/m 9,7 km/h (2 Bft) 95,74 %
27.01.2023 06:40 2,8 C 2,2 C -0,6 C 94 % 1025,0 hPa 0,0 l/m 0 min 0 min 0 W/m 6,4 km/h (2 Bft) 97,87 %
27.01.2023 06:42 2,8 C 2,2 C -0,6 C 94 % 1025,0 hPa 0,0 l/m 0 min 0 min 0 W/m 6,4 km/h (2 Bft) 97,87 %
27.01.2023 06:44 2,8 C 2,2 C -0,6 C 95 % 1025,0 hPa 0,0 l/m 0 min 0 min 0 W/m 16,1 km/h (3 Bft) 97,83 %
27.01.2023 06:46 2,8 C 2,2 C -0,6 C 95 % 1025,0 hPa 0,0 l/m 0 min 0 min 0 W/m 12,9 km/h (3 Bft) 97,87 %
27.01.2023 06:48 2,8 C 2,2 C -0,6 C 95 % 1025,0 hPa 0,0 l/m 0 min 0 min 0 W/m 6,4 km/h (2 Bft) 95,74 %
27.01.2023 06:50 2,8 C 2,2 C -0,6 C 95 % 1025,1 hPa 0,0 l/m 0 min 0 min 0 W/m 9,7 km/h (2 Bft) 95,74 %
27.01.2023 06:52 2,8 C 2,2 C 0,0 C 95 % 1025,1 hPa 0,0 l/m 0 min 0 min 0 W/m 9,7 km/h (2 Bft) 97,87 %
27.01.2023 06:54 2,8 C 2,2 C 0,0 C 95 % 1025,1 hPa 0,0 l/m 0 min 0 min 0 W/m 16,1 km/h (3 Bft) 97,87 %
27.01.2023 06:56 2,8 C 2,2 C 0,0 C 95 % 1025,0 hPa 0,0 l/m 0 min 0 min 0 W/m 12,9 km/h (3 Bft) 97,83 %
27.01.2023 06:58 2,8 C 2,2 C 0,0 C 95 % 1025,1 hPa 0,0 l/m 0 min 0 min 0 W/m 9,7 km/h (2 Bft) 97,87 %
27.01.2023 07:00 2,8 C 2,2 C 0,0 C 95 % 1025,1 hPa 0,0 l/m 0 min 0 min 0 W/m 9,7 km/h (2 Bft) 97,87 %
27.01.2023 07:02 2,8 C 2,2 C 0,0 C 95 % 1025,1 hPa 0,0 l/m 0 min 0 min 0 W/m 9,7 km/h (2 Bft) 95,74 %
27.01.2023 07:04 2,8 C 2,2 C 0,0 C 95 % 1025,1 hPa 0,0 l/m 0 min 0 min 0 W/m 6,4 km/h (2 Bft) 97,87 %
27.01.2023 07:06 2,8 C 2,2 C 0,0 C 95 % 1025,1 hPa 0,0 l/m 0 min 0 min 0 W/m 16,1 km/h (3 Bft) 100,00 %
27.01.2023 07:08 2,8 C 2,2 C 0,0 C 95 % 1025,1 hPa 0,0 l/m 0 min 0 min 0 W/m 12,9 km/h (3 Bft) 100,00 %
27.01.2023 07:10 2,8 C 2,2 C 0,0 C 95 % 1025,1 hPa 0,0 l/m 0 min 0 min 0 W/m 6,4 km/h (2 Bft) 97,83 %
27.01.2023 07:12 2,8 C 2,2 C 0,0 C 95 % 1025,1 hPa 0,0 l/m 0 min 0 min 0 W/m 12,9 km/h (3 Bft) 97,87 %
27.01.2023 07:14 2,8 C 2,2 C 0,0 C 95 % 1025,1 hPa 0,0 l/m 0 min 0 min 0 W/m 12,9 km/h (3 Bft) 100,00 %
27.01.2023 07:16 2,8 C 2,2 C 0,0 C 95 % 1025,1 hPa 0,0 l/m 0 min 0 min 0 W/m 9,7 km/h (2 Bft) 97,87 %
27.01.2023 07:18 2,8 C 2,2 C 0,0 C 95 % 1025,1 hPa 0,0 l/m 0 min 0 min 0 W/m 12,9 km/h (3 Bft) 97,87 %
27.01.2023 07:20 2,8 C 2,2 C 0,0 C 95 % 1025,0 hPa 0,0 l/m 0 min 0 min 0 W/m 9,7 km/h (2 Bft) 95,74 %
27.01.2023 07:22 2,8 C 2,2 C 0,0 C 95 % 1025,1 hPa 0,0 l/m 0 min 0 min 0 W/m 9,7 km/h (2 Bft) 95,65 %
27.01.2023 07:24 2,8 C 2,2 C 0,0 C 95 % 1025,1 hPa 0,0 l/m 0 min 0 min 0 W/m 6,4 km/h (2 Bft) 95,74 %
27.01.2023 07:26 2,8 C 2,2 C 0,0 C 95 % 1025,1 hPa 0,0 l/m 0 min 0 min 0 W/m 9,7 km/h (2 Bft) 97,87 %
27.01.2023 07:28 2,8 C 2,2 C 0,0 C 95 % 1025,1 hPa 0,0 l/m 0 min 0 min 0 W/m 6,4 km/h (2 Bft) 95,74 %
27.01.2023 07:30 2,8 C 2,2 C 0,0 C 95 % 1025,1 hPa 0,0 l/m 0 min 0 min 0 W/m 0,0 km/h (0 Bft) 100,00 %
27.01.2023 07:32 2,8 C 2,2 C 0,0 C 95 % 1025,0 hPa 0,0 l/m 0 min 0 min 0 W/m 0,0 km/h (0 Bft) 93,62 %
27.01.2023 07:34 2,8 C 2,2 C 0,0 C 95 % 1025,1 hPa 0,0 l/m 0 min 0 min 0 W/m 9,7 km/h (2 Bft) 97,14 %
27.01.2023 07:36 2,8 C 2,2 C 0,0 C 95 % 1025,2 hPa 0,0 l/m 0 min 0 min 0 W/m 6,4 km/h (2 Bft) 96,15 %
27.01.2023 07:38 2,8 C 2,2 C 0,0 C 95 % 1025,2 hPa 0,0 l/m 0 min 0 min 0 W/m 6,4 km/h (2 Bft) 95,65 %
27.01.2023 07:40 2,9 C 2,2 C 0,0 C 95 % 1025,2 hPa 0,0 l/m 0 min 0 min 0 W/m 6,4 km/h (2 Bft) 95,74 %
27.01.2023 07:42 2,8 C 2,2 C 0,0 C 95 % 1025,3 hPa 0,0 l/m 0 min 0 min 0 W/m 12,9 km/h (3 Bft) 95,74 %
27.01.2023 07:44 2,8 C 2,2 C 0,0 C 95 % 1025,3 hPa 0,0 l/m 0 min 0 min 0 W/m 9,7 km/h (2 Bft) 93,62 %
27.01.2023 07:46 2,8 C 2,2 C 0,0 C 96 % 1025,3 hPa 0,0 l/m 0 min 0 min 0 W/m 6,4 km/h (2 Bft) 95,74 %
27.01.2023 07:48 2,9 C 2,2 C 0,0 C 96 % 1025,4 hPa 0,0 l/m 0 min 0 min 0 W/m 6,4 km/h (2 Bft) 93,62 %
27.01.2023 07:50 2,9 C 2,2 C 0,0 C 96 % 1025,4 hPa 0,0 l/m 0 min 0 min 0 W/m 9,7 km/h (2 Bft) 95,65 %
27.01.2023 07:52 2,9 C 2,2 C 0,0 C 95 % 1025,4 hPa 0,0 l/m 0 min 0 min 0 W/m 6,4 km/h (2 Bft) 95,74 %
27.01.2023 07:54 2,9 C 2,2 C 0,0 C 95 % 1025,5 hPa 0,0 l/m 0 min 0 min 0 W/m 6,4 km/h (2 Bft) 95,74 %
27.01.2023 07:56 2,9 C 2,2 C 0,0 C 96 % 1025,5 hPa 0,0 l/m 0 min 0 min 0 W/m 12,9 km/h (3 Bft) 95,74 %
27.01.2023 07:58 2,9 C 2,2 C 0,0 C 96 % 1025,5 hPa 0,0 l/m 0 min 0 min 0 W/m 12,9 km/h (3 Bft) 97,87 %
27.01.2023 08:00 2,9 C 2,2 C 0,0 C 96 % 1025,5 hPa 0,0 l/m 0 min 0 min 0 W/m 12,9 km/h (3 Bft) 97,87 %
27.01.2023 08:02 2,9 C 2,2 C 0,0 C 96 % 1025,5 hPa 0,0 l/m 0 min 0 min 0 W/m 9,7 km/h (2 Bft) 97,87 %
27.01.2023 08:04 2,9 C 2,2 C 0,0 C 96 % 1025,5 hPa 0,0 l/m 0 min 0 min 0 W/m 6,4 km/h (2 Bft) 97,83 %
27.01.2023 08:06 2,9 C 2,2 C 0,0 C 96 % 1025,5 hPa 0,0 l/m 0 min 0 min 0 W/m 16,1 km/h (3 Bft) 98,00 %
27.01.2023 08:08 2,9 C 2,8 C 0,0 C 96 % 1025,5 hPa 0,0 l/m 0 min 0 min 0 W/m 6,4 km/h (2 Bft) 95,74 %
27.01.2023 08:10 2,9 C 2,8 C 0,0 C 96 % 1025,5 hPa 0,0 l/m 0 min 0 min 0 W/m 16,1 km/h (3 Bft) 95,74 %
27.01.2023 08:12 2,9 C 2,8 C 0,0 C 96 % 1025,5 hPa 0,0 l/m 0 min 0 min 0 W/m 22,5 km/h (4 Bft) 97,87 %
27.01.2023 08:14 2,9 C 2,8 C 0,0 C 96 % 1025,5 hPa 0,0 l/m 0 min 0 min 0 W/m 9,7 km/h (2 Bft) 95,74 %
27.01.2023 08:16 3,0 C 2,8 C 0,0 C 96 % 1025,5 hPa 0,0 l/m 0 min 0 min 0 W/m 9,7 km/h (2 Bft) 80,85 %
27.01.2023 08:18 3,0 C 2,8 C 0,0 C 96 % 1025,5 hPa 0,0 l/m 0 min 0 min 0 W/m 12,9 km/h (3 Bft) 97,83 %
27.01.2023 08:20 3,0 C 2,8 C 0,0 C 96 % 1025,5 hPa 0,0 l/m 0 min 0 min 0 W/m 16,1 km/h (3 Bft) 100,00 %
27.01.2023 08:22 3,0 C 2,8 C 0,0 C 96 % 1025,5 hPa 0,0 l/m 0 min 0 min 0 W/m 12,9 km/h (3 Bft) 95,74 %
27.01.2023 08:24 3,0 C 2,8 C 0,0 C 96 % 1025,4 hPa 0,0 l/m 0 min 0 min 0 W/m 12,9 km/h (3 Bft) 100,00 %
27.01.2023 08:26 3,0 C 2,8 C 0,0 C 96 % 1025,5 hPa 0,0 l/m 0 min 0 min 1 W/m 9,7 km/h (2 Bft) 97,87 %
27.01.2023 08:28 3,0 C 2,8 C 0,0 C 96 % 1025,6 hPa 0,0 l/m 0 min 0 min 5 W/m 12,9 km/h (3 Bft) 97,87 %
27.01.2023 08:30 3,1 C 2,8 C 0,0 C 96 % 1025,5 hPa 0,0 l/m 0 min 0 min 5 W/m 6,4 km/h (2 Bft) 100,00 %
27.01.2023 08:32 3,1 C 2,8 C 0,0 C 96 % 1025,6 hPa 0,0 l/m 0 min 0 min 4 W/m 12,9 km/h (3 Bft) 97,83 %
27.01.2023 08:34 3,1 C 2,8 C 0,0 C 95 % 1025,6 hPa 0,0 l/m 0 min 0 min 0 W/m 6,4 km/h (2 Bft) 97,87 %
27.01.2023 08:36 3,1 C 2,8 C 0,6 C 95 % 1025,6 hPa 0,0 l/m 0 min 0 min 0 W/m 12,9 km/h (3 Bft) 100,00 %
27.01.2023 08:38 3,1 C 2,8 C 0,6 C 95 % 1025,6 hPa 0,0 l/m 0 min 0 min 0 W/m 16,1 km/h (3 Bft) 100,00 %
27.01.2023 08:40 3,1 C 2,8 C 0,6 C 95 % 1025,6 hPa 0,0 l/m 0 min 0 min 0 W/m 6,4 km/h (2 Bft) 100,00 %
27.01.2023 08:42 3,1 C 2,8 C 0,6 C 95 % 1025,6 hPa 0,0 l/m 0 min 0 min 4 W/m 9,7 km/h (2 Bft) 100,00 %
27.01.2023 08:44 3,1 C 2,8 C 0,6 C 95 % 1025,6 hPa 0,0 l/m 0 min 0 min 7 W/m 9,7 km/h (2 Bft) 100,00 %
27.01.2023 08:46 3,1 C 2,8 C 0,6 C 95 % 1025,6 hPa 0,0 l/m 0 min 0 min 8 W/m 16,1 km/h (3 Bft) 97,87 %
27.01.2023 08:48 3,1 C 2,8 C 0,6 C 95 % 1025,7 hPa 0,0 l/m 0 min 0 min 11 W/m 12,9 km/h (3 Bft) 97,87 %
27.01.2023 08:50 3,1 C 2,8 C 0,6 C 95 % 1025,6 hPa 0,0 l/m 0 min 0 min 14 W/m 6,4 km/h (2 Bft) 100,00 %
27.01.2023 08:52 3,2 C 2,8 C 0,6 C 95 % 1025,7 hPa 0,0 l/m 0 min 0 min 14 W/m 16,1 km/h (3 Bft) 100,00 %
27.01.2023 08:54 3,2 C 2,8 C 0,6 C 95 % 1025,7 hPa 0,0 l/m 0 min 0 min 15 W/m 12,9 km/h (3 Bft) 100,00 %
27.01.2023 08:56 3,2 C 2,8 C 0,6 C 95 % 1025,7 hPa 0,0 l/m 0 min 0 min 14 W/m 12,9 km/h (3 Bft) 100,00 %
27.01.2023 08:58 3,2 C 2,8 C 0,6 C 95 % 1025,7 hPa 0,0 l/m 0 min 0 min 16 W/m 9,7 km/h (2 Bft) 100,00 %
27.01.2023 09:00 3,2 C 2,8 C 0,6 C 95 % 1025,7 hPa 0,0 l/m 0 min 0 min 16 W/m 12,9 km/h (3 Bft) 95,74 %
27.01.2023 09:02 3,3 C 2,8 C 0,6 C 95 % 1025,8 hPa 0,0 l/m 0 min 0 min 18 W/m 9,7 km/h (2 Bft) 94,29 %
27.01.2023 09:04 3,3 C 2,8 C 0,6 C 95 % 1025,8 hPa 0,0 l/m 0 min 0 min 18 W/m 9,7 km/h (2 Bft) 100,00 %
27.01.2023 09:06 3,3 C 2,8 C 0,6 C 95 % 1025,8 hPa 0,0 l/m 0 min 0 min 21 W/m 3,2 km/h (1 Bft) 100,00 %
27.01.2023 09:08 3,3 C 2,8 C 0,6 C 95 % 1025,9 hPa 0,0 l/m 0 min 0 min 19 W/m 9,7 km/h (2 Bft) 100,00 %
27.01.2023 09:10 3,3 C 2,8 C 0,6 C 95 % 1025,8 hPa 0,0 l/m 0 min 0 min 18 W/m 12,9 km/h (3 Bft) 100,00 %
27.01.2023 09:12 3,3 C 2,8 C 0,6 C 95 % 1025,8 hPa 0,0 l/m 0 min 0 min 18 W/m 16,1 km/h (3 Bft) 100,00 %
27.01.2023 09:14 3,3 C 2,8 C 0,6 C 95 % 1025,8 hPa 0,0 l/m 0 min 0 min 18 W/m 19,3 km/h (3 Bft) 97,87 %
27.01.2023 09:16 3,3 C 2,8 C 0,6 C 95 % 1025,9 hPa 0,0 l/m 0 min 0 min 13 W/m 16,1 km/h (3 Bft) 95,74 %
27.01.2023 09:18 3,3 C 2,8 C 0,6 C 95 % 1025,9 hPa 0,0 l/m 0 min 0 min 14 W/m 12,9 km/h (3 Bft) 97,87 %
27.01.2023 09:20 3,4 C 2,8 C 0,6 C 95 % 1025,9 hPa 0,0 l/m 0 min 0 min 12 W/m 9,7 km/h (2 Bft) 97,87 %
27.01.2023 09:22 3,4 C 2,8 C 0,6 C 95 % 1025,9 hPa 0,0 l/m 0 min 0 min 14 W/m 6,4 km/h (2 Bft) 95,74 %
27.01.2023 09:24 3,4 C 2,8 C 0,6 C 95 % 1025,8 hPa 0,0 l/m 0 min 0 min 17 W/m 9,7 km/h (2 Bft) 95,65 %
27.01.2023 09:26 3,4 C 3,3 C 0,6 C 95 % 1025,9 hPa 0,0 l/m 0 min 0 min 18 W/m 12,9 km/h (3 Bft) 95,74 %
27.01.2023 09:28 3,4 C 3,3 C 0,6 C 95 % 1025,8 hPa 0,0 l/m 0 min 0 min 22 W/m 12,9 km/h (3 Bft) 95,74 %
27.01.2023 09:30 3,4 C 3,3 C 0,6 C 95 % 1025,8 hPa 0,0 l/m 0 min 0 min 21 W/m 16,1 km/h (3 Bft) 95,74 %
27.01.2023 09:32 3,4 C 3,3 C 0,6 C 95 % 1025,8 hPa 0,0 l/m 0 min 0 min 20 W/m 16,1 km/h (3 Bft) 95,74 %
27.01.2023 09:34 3,4 C 3,3 C 0,6 C 95 % 1025,8 hPa 0,0 l/m 0 min 0 min 21 W/m 9,7 km/h (2 Bft) 95,74 %
27.01.2023 09:36 3,4 C 3,3 C 0,6 C 95 % 1025,8 hPa 0,0 l/m 0 min 0 min 27 W/m 22,5 km/h (4 Bft) 94,29 %
27.01.2023 09:38 3,4 C 3,3 C 0,6 C 95 % 1025,8 hPa 0,0 l/m 0 min 0 min 23 W/m 22,5 km/h (4 Bft) 93,10 %
27.01.2023 09:40 3,5 C 3,3 C 0,6 C 95 % 1025,8 hPa 0,0 l/m 0 min 0 min 24 W/m 12,9 km/h (3 Bft) 93,62 %
27.01.2023 09:42 3,5 C 3,3 C 0,6 C 95 % 1025,8 hPa 0,0 l/m 0 min 0 min 19 W/m 12,9 km/h (3 Bft) 97,14 %
27.01.2023 09:44 3,5 C 3,3 C 0,6 C 95 % 1025,9 hPa 0,0 l/m 0 min 0 min 21 W/m 12,9 km/h (3 Bft) 93,22 %
27.01.2023 09:46 3,6 C 3,3 C 0,6 C 95 % 1025,9 hPa 0,0 l/m 0 min 0 min 23 W/m 6,4 km/h (2 Bft) 95,74 %
27.01.2023 09:48 3,6 C 3,3 C 0,6 C 95 % 1025,9 hPa 0,0 l/m 0 min 0 min 26 W/m 9,7 km/h (2 Bft) 94,29 %
27.01.2023 09:50 3,6 C 3,3 C 1,1 C 95 % 1025,9 hPa 0,0 l/m 0 min 0 min 32 W/m 22,5 km/h (4 Bft) 91,49 %
27.01.2023 09:52 3,6 C 3,3 C 1,1 C 95 % 1025,9 hPa 0,0 l/m 0 min 0 min 34 W/m 16,1 km/h (3 Bft) 93,62 %
27.01.2023 09:54 3,6 C 3,3 C 1,1 C 94 % 1025,9 hPa 0,0 l/m 0 min 0 min 30 W/m 12,9 km/h (3 Bft) 93,48 %
27.01.2023 09:56 3,6 C 3,3 C 1,1 C 94 % 1025,8 hPa 0,0 l/m 0 min 0 min 37 W/m 9,7 km/h (2 Bft) 89,36 %
27.01.2023 09:58 3,6 C 3,3 C 1,1 C 95 % 1025,9 hPa 0,0 l/m 0 min 0 min 36 W/m 6,4 km/h (2 Bft) 93,62 %
27.01.2023 10:00 3,7 C 3,3 C 1,1 C 95 % 1025,9 hPa 0,0 l/m 0 min 0 min 36 W/m 16,1 km/h (3 Bft) 93,62 %
27.01.2023 10:02 3,7 C 3,3 C 1,1 C 95 % 1026,0 hPa 0,0 l/m 0 min 0 min 39 W/m 16,1 km/h (3 Bft) 95,74 %
27.01.2023 10:04 3,7 C 3,3 C 1,1 C 94 % 1025,9 hPa 0,0 l/m 0 min 0 min 31 W/m 16,1 km/h (3 Bft) 93,62 %
27.01.2023 10:06 3,7 C 3,3 C 1,1 C 94 % 1026,0 hPa 0,0 l/m 0 min 0 min 33 W/m 16,1 km/h (3 Bft) 94,83 %
27.01.2023 10:08 3,7 C 3,3 C 1,1 C 94 % 1026,0 hPa 0,0 l/m 0 min 0 min 36 W/m 12,9 km/h (3 Bft) 97,14 %
27.01.2023 10:10 3,8 C 3,3 C 1,1 C 94 % 1026,0 hPa 0,0 l/m 0 min 0 min 31 W/m 25,7 km/h (4 Bft) 93,62 %
27.01.2023 10:12 3,8 C 3,3 C 1,1 C 94 % 1026,0 hPa 0,0 l/m 0 min 0 min 31 W/m 12,9 km/h (3 Bft) 97,87 %
27.01.2023 10:14 3,8 C 3,3 C 1,1 C 94 % 1026,0 hPa 0,0 l/m 0 min 0 min 48 W/m 19,3 km/h (3 Bft) 97,87 %
27.01.2023 10:16 3,8 C 3,9 C 1,1 C 94 % 1026,0 hPa 0,0 l/m 0 min 0 min 47 W/m 22,5 km/h (4 Bft) 97,87 %
27.01.2023 10:18 3,8 C 3,9 C 1,1 C 94 % 1026,0 hPa 0,0 l/m 0 min 0 min 41 W/m 16,1 km/h (3 Bft) 95,74 %
27.01.2023 10:20 3,8 C 3,9 C 1,1 C 94 % 1026,0 hPa 0,0 l/m 0 min 0 min 44 W/m 9,7 km/h (2 Bft) 95,65 %
27.01.2023 10:22 3,8 C 3,9 C 1,1 C 94 % 1026,1 hPa 0,0 l/m 0 min 0 min 40 W/m 19,3 km/h (3 Bft) 97,87 %
27.01.2023 10:24 3,9 C 3,9 C 1,1 C 94 % 1026,1 hPa 0,0 l/m 0 min 0 min 33 W/m 12,9 km/h (3 Bft) 97,87 %
27.01.2023 10:26 3,9 C 3,9 C 1,1 C 94 % 1026,1 hPa 0,0 l/m 0 min 0 min 33 W/m 12,9 km/h (3 Bft) 97,87 %
27.01.2023 10:28 3,9 C 3,9 C 1,1 C 94 % 1026,2 hPa 0,0 l/m 0 min 0 min 35 W/m 9,7 km/h (2 Bft) 95,74 %
27.01.2023 10:30 3,9 C 3,9 C 1,1 C 94 % 1026,2 hPa 0,0 l/m 0 min 0 min 34 W/m 12,9 km/h (3 Bft) 97,87 %
27.01.2023 10:32 3,9 C 3,9 C 1,1 C 94 % 1026,2 hPa 0,0 l/m 0 min 0 min 31 W/m 16,1 km/h (3 Bft) 95,74 %
27.01.2023 10:34 3,9 C 3,9 C 1,1 C 94 % 1026,2 hPa 0,0 l/m 0 min 0 min 28 W/m 16,1 km/h (3 Bft) 97,83 %
27.01.2023 10:36 3,9 C 3,9 C 1,1 C 94 % 1026,3 hPa 0,0 l/m 0 min 0 min 41 W/m 19,3 km/h (3 Bft) 97,87 %
27.01.2023 10:38 3,9 C 3,9 C 1,1 C 94 % 1026,3 hPa 0,0 l/m 0 min 0 min 40 W/m 9,7 km/h (2 Bft) 100,00 %
27.01.2023 10:40 3,9 C 3,9 C 1,1 C 93 % 1026,3 hPa 0,0 l/m 0 min 0 min 36 W/m 22,5 km/h (4 Bft) 100,00 %
27.01.2023 10:42 4,0 C 3,9 C 1,1 C 93 % 1026,3 hPa 0,0 l/m 0 min 0 min 35 W/m 12,9 km/h (3 Bft) 97,87 %
27.01.2023 10:44 4,0 C 3,9 C 1,1 C 93 % 1026,3 hPa 0,0 l/m 0 min 0 min 36 W/m 16,1 km/h (3 Bft) 100,00 %
27.01.2023 10:46 4,0 C 3,9 C 1,1 C 94 % 1026,3 hPa 0,0 l/m 0 min 0 min 37 W/m 19,3 km/h (3 Bft) 100,00 %
27.01.2023 10:48 4,0 C 3,9 C 1,1 C 94 % 1026,4 hPa 0,0 l/m 0 min 0 min 37 W/m 9,7 km/h (2 Bft) 100,00 %
27.01.2023 10:50 4,0 C 3,9 C 1,1 C 94 % 1026,4 hPa 0,0 l/m 0 min 0 min 33 W/m 22,5 km/h (4 Bft) 100,00 %
27.01.2023 10:52 4,1 C 3,9 C 1,1 C 93 % 1026,4 hPa 0,0 l/m 0 min 0 min 40 W/m 9,7 km/h (2 Bft) 100,00 %
27.01.2023 10:54 4,1 C 3,9 C 1,1 C 93 % 1026,4 hPa 0,0 l/m 0 min 0 min 36 W/m 12,9 km/h (3 Bft) 100,00 %
27.01.2023 10:56 4,1 C 3,9 C 1,1 C 93 % 1026,4 hPa 0,0 l/m 0 min 0 min 37 W/m 19,3 km/h (3 Bft) 100,00 %
27.01.2023 10:58 4,1 C 3,9 C 1,1 C 93 % 1026,4 hPa 0,0 l/m 0 min 0 min 37 W/m 22,5 km/h (4 Bft) 100,00 %
27.01.2023 11:00 4,1 C 3,9 C 1,1 C 93 % 1026,4 hPa 0,0 l/m 0 min 0 min 32 W/m 19,3 km/h (3 Bft) 100,00 %
27.01.2023 11:02 4,1 C 3,9 C 1,1 C 93 % 1026,4 hPa 0,0 l/m 0 min 0 min 30 W/m 22,5 km/h (4 Bft) 97,87 %
27.01.2023 11:04 4,1 C 3,9 C 1,1 C 93 % 1026,5 hPa 0,0 l/m 0 min 0 min 39 W/m 19,3 km/h (3 Bft) 100,00 %
27.01.2023 11:06 4,1 C 3,9 C 1,1 C 93 % 1026,5 hPa 0,0 l/m 0 min 0 min 46 W/m 6,4 km/h (2 Bft) 98,31 %
27.01.2023 11:08 4,1 C 3,9 C 1,1 C 93 % 1026,4 hPa 0,0 l/m 0 min 0 min 51 W/m 16,1 km/h (3 Bft) 100,00 %
27.01.2023 11:10 4,1 C 3,9 C 1,1 C 93 % 1026,4 hPa 0,0 l/m 0 min 0 min 47 W/m 22,5 km/h (4 Bft) 100,00 %
27.01.2023 11:12 4,1 C 3,9 C 1,1 C 93 % 1026,4 hPa 0,0 l/m 0 min 0 min 45 W/m 16,1 km/h (3 Bft) 100,00 %
27.01.2023 11:14 4,2 C 3,9 C 1,1 C 93 % 1026,4 hPa 0,0 l/m 0 min 0 min 41 W/m 9,7 km/h (2 Bft) 100,00 %
27.01.2023 11:16 4,2 C 3,9 C 1,1 C 93 % 1026,4 hPa 0,0 l/m 0 min 0 min 45 W/m 16,1 km/h (3 Bft) 97,87 %
27.01.2023 11:18 4,2 C 3,9 C 1,1 C 93 % 1026,4 hPa 0,0 l/m 0 min 0 min 46 W/m 12,9 km/h (3 Bft) 97,87 %
27.01.2023 11:20 4,2 C 3,9 C 1,1 C 93 % 1026,4 hPa 0,0 l/m 0 min 0 min 49 W/m 19,3 km/h (3 Bft) 100,00 %
27.01.2023 11:22 4,2 C 3,9 C 1,1 C 93 % 1026,4 hPa 0,0 l/m 0 min 0 min 47 W/m 22,5 km/h (4 Bft) 100,00 %
27.01.2023 11:24 4,2 C 3,9 C 1,7 C 93 % 1026,5 hPa 0,0 l/m 0 min 0 min 47 W/m 12,9 km/h (3 Bft) 100,00 %
27.01.2023 11:26 4,2 C 3,9 C 1,7 C 93 % 1026,4 hPa 0,0 l/m 0 min 0 min 46 W/m 19,3 km/h (3 Bft) 100,00 %
27.01.2023 11:28 4,2 C 3,9 C 1,7 C 93 % 1026,4 hPa 0,0 l/m 0 min 0 min 48 W/m 9,7 km/h (2 Bft) 97,87 %
27.01.2023 11:30 4,3 C 3,9 C 1,7 C 93 % 1026,4 hPa 0,0 l/m 0 min 0 min 50 W/m 9,7 km/h (2 Bft) 93,62 %
27.01.2023 11:32 4,3 C 3,9 C 1,7 C 93 % 1026,4 hPa 0,0 l/m 0 min 0 min 51 W/m 9,7 km/h (2 Bft) 97,87 %
27.01.2023 11:34 4,3 C 3,9 C 1,7 C 93 % 1026,4 hPa 0,0 l/m 0 min 0 min 66 W/m 12,9 km/h (3 Bft) 97,87 %
27.01.2023 11:36 4,3 C 4,4 C 1,7 C 93 % 1026,4 hPa 0,0 l/m 0 min 0 min 63 W/m 22,5 km/h (4 Bft) 97,83 %
27.01.2023 11:38 4,3 C 4,4 C 1,7 C 93 % 1026,4 hPa 0,0 l/m 0 min 0 min 62 W/m 12,9 km/h (3 Bft) 97,87 %
27.01.2023 11:40 4,3 C 4,4 C 1,7 C 93 % 1026,3 hPa 0,0 l/m 0 min 0 min 64 W/m 19,3 km/h (3 Bft) 97,87 %
27.01.2023 11:42 4,3 C 4,4 C 1,7 C 93 % 1026,4 hPa 0,0 l/m 0 min 0 min 58 W/m 12,9 km/h (3 Bft) 97,87 %
27.01.2023 11:44 4,3 C 4,4 C 1,7 C 93 % 1026,3 hPa 0,0 l/m 0 min 0 min 65 W/m 16,1 km/h (3 Bft) 93,62 %
27.01.2023 11:46 4,3 C 4,4 C 1,7 C 93 % 1026,3 hPa 0,0 l/m 0 min 0 min 73 W/m 19,3 km/h (3 Bft) 97,87 %
27.01.2023 11:48 4,4 C 4,4 C 1,7 C 93 % 1026,3 hPa 0,0 l/m 0 min 0 min 82 W/m 12,9 km/h (3 Bft) 95,74 %
27.01.2023 11:50 4,4 C 4,4 C 1,7 C 93 % 1026,3 hPa 0,0 l/m 0 min 0 min 84 W/m 25,7 km/h (4 Bft) 97,87 %
27.01.2023 11:52 4,4 C 4,4 C 1,7 C 93 % 1026,3 hPa 0,0 l/m 0 min 0 min 83 W/m 19,3 km/h (3 Bft) 97,83 %
27.01.2023 11:54 4,4 C 4,4 C 1,7 C 93 % 1026,3 hPa 0,0 l/m 0 min 0 min 78 W/m 19,3 km/h (3 Bft) 95,74 %
27.01.2023 11:56 4,4 C 4,4 C 1,7 C 93 % 1026,3 hPa 0,0 l/m 0 min 0 min 84 W/m 12,9 km/h (3 Bft) 97,87 %
27.01.2023 11:58 4,5 C 4,4 C 1,7 C 93 % 1026,3 hPa 0,0 l/m 0 min 0 min 75 W/m 9,7 km/h (2 Bft) 97,87 %
27.01.2023 12:00 4,5 C 4,4 C 1,7 C 93 % 1026,2 hPa 0,0 l/m 0 min 0 min 77 W/m 12,9 km/h (3 Bft) 97,87 %
27.01.2023 12:02 4,5 C 4,4 C 1,7 C 93 % 1026,2 hPa 0,0 l/m 0 min 0 min 84 W/m 16,1 km/h (3 Bft) 93,62 %
27.01.2023 12:04 4,5 C 4,4 C 1,7 C 93 % 1026,2 hPa 0,0 l/m 0 min 0 min 79 W/m 25,7 km/h (4 Bft) 100,00 %
27.01.2023 12:07 4,6 C 4,4 C 1,7 C 93 % 1026,2 hPa 0,0 l/m 0 min 0 min 76 W/m 16,1 km/h (3 Bft) 98,72 %
27.01.2023 12:08 4,6 C 4,4 C 1,7 C 93 % 1026,2 hPa 0,0 l/m 0 min 0 min 66 W/m 12,9 km/h (3 Bft) 96,15 %
27.01.2023 12:12 4,6 C 4,4 C 1,7 C 93 % 1026,2 hPa 0,0 l/m 0 min 0 min 74 W/m 19,3 km/h (3 Bft) 98,28 %
27.01.2023 12:14 4,6 C 4,4 C 1,7 C 92 % 1026,2 hPa 0,0 l/m 0 min 0 min 74 W/m 22,5 km/h (4 Bft) 97,87 %
27.01.2023 12:16 4,6 C 4,4 C 1,7 C 92 % 1026,1 hPa 0,0 l/m 0 min 0 min 78 W/m 12,9 km/h (3 Bft) 95,74 %
27.01.2023 12:18 4,6 C 4,4 C 1,7 C 92 % 1026,1 hPa 0,0 l/m 0 min 0 min 80 W/m 16,1 km/h (3 Bft) 97,83 %
27.01.2023 12:20 4,6 C 4,4 C 1,7 C 92 % 1026,2 hPa 0,0 l/m 0 min 0 min 79 W/m 19,3 km/h (3 Bft) 97,87 %
27.01.2023 12:22 4,6 C 4,4 C 1,7 C 92 % 1026,1 hPa 0,0 l/m 0 min 0 min 81 W/m 16,1 km/h (3 Bft) 95,74 %
27.01.2023 12:24 4,6 C 4,4 C 1,7 C 92 % 1026,1 hPa 0,0 l/m 0 min 0 min 72 W/m 16,1 km/h (3 Bft) 95,74 %
27.01.2023 12:26 4,6 C 4,4 C 1,7 C 92 % 1026,1 hPa 0,0 l/m 0 min 0 min 65 W/m 16,1 km/h (3 Bft) 97,87 %
27.01.2023 12:28 4,6 C 4,4 C 1,7 C 92 % 1026,1 hPa 0,0 l/m 0 min 0 min 64 W/m 25,7 km/h (4 Bft) 97,87 %
27.01.2023 12:30 4,6 C 4,4 C 1,7 C 92 % 1026,1 hPa 0,0 l/m 0 min 0 min 52 W/m 19,3 km/h (3 Bft) 56,52 %
27.01.2023 12:32 4,6 C 4,4 C 1,7 C 92 % 1026,1 hPa 0,0 l/m 0 min 0 min 66 W/m 19,3 km/h (3 Bft) 97,83 %
27.01.2023 12:34 4,6 C 4,4 C 1,7 C 92 % 1026,1 hPa 0,0 l/m 0 min 0 min 61 W/m 12,9 km/h (3 Bft) 95,74 %
27.01.2023 12:36 4,7 C 4,4 C 1,7 C 92 % 1026,1 hPa 0,0 l/m 0 min 0 min 74 W/m 25,7 km/h (4 Bft) 95,74 %
27.01.2023 12:38 4,7 C 4,4 C 1,7 C 92 % 1026,1 hPa 0,0 l/m 0 min 0 min 73 W/m 16,1 km/h (3 Bft) 95,74 %
27.01.2023 12:40 4,7 C 4,4 C 1,7 C 92 % 1026,1 hPa 0,0 l/m 0 min 0 min 82 W/m 25,7 km/h (4 Bft) 95,74 %
27.01.2023 12:42 4,6 C 4,4 C 1,7 C 92 % 1026,1 hPa 0,0 l/m 0 min 0 min 65 W/m 25,7 km/h (4 Bft) 95,74 %
27.01.2023 12:44 4,7 C 4,4 C 1,7 C 92 % 1026,1 hPa 0,0 l/m 0 min 0 min 79 W/m 16,1 km/h (3 Bft) 95,74 %
27.01.2023 12:46 4,7 C 4,4 C 1,7 C 92 % 1026,0 hPa 0,0 l/m 0 min 0 min 76 W/m 12,9 km/h (3 Bft) 95,65 %
27.01.2023 12:48 4,7 C 4,4 C 1,7 C 92 % 1026,1 hPa 0,0 l/m 0 min 0 min 91 W/m 25,7 km/h (4 Bft) 95,74 %
27.01.2023 12:50 4,7 C 4,4 C 1,7 C 92 % 1026,1 hPa 0,0 l/m 0 min 0 min 69 W/m 16,1 km/h (3 Bft) 93,62 %
27.01.2023 12:52 4,7 C 4,4 C 1,7 C 92 % 1026,1 hPa 0,0 l/m 0 min 0 min 69 W/m 9,7 km/h (2 Bft) 91,49 %
27.01.2023 12:54 4,7 C 4,4 C 1,7 C 92 % 1026,1 hPa 0,0 l/m 0 min 0 min 65 W/m 19,3 km/h (3 Bft) 97,87 %
27.01.2023 12:56 4,7 C 4,4 C 1,7 C 92 % 1026,0 hPa 0,0 l/m 0 min 0 min 68 W/m 19,3 km/h (3 Bft) 97,87 %
27.01.2023 12:58 4,7 C 4,4 C 1,7 C 92 % 1026,0 hPa 0,0 l/m 0 min 0 min 65 W/m 9,7 km/h (2 Bft) 97,87 %
27.01.2023 13:00 4,7 C 4,4 C 1,7 C 92 % 1026,0 hPa 0,0 l/m 0 min 0 min 69 W/m 19,3 km/h (3 Bft) 95,65 %
27.01.2023 13:02 4,7 C 4,4 C 1,7 C 92 % 1026,0 hPa 0,0 l/m 0 min 0 min 71 W/m 12,9 km/h (3 Bft) 97,87 %
27.01.2023 13:04 4,7 C 4,4 C 1,7 C 92 % 1026,0 hPa 0,0 l/m 0 min 0 min 71 W/m 22,5 km/h (4 Bft) 97,87 %
27.01.2023 13:06 4,7 C 4,4 C 1,7 C 92 % 1026,0 hPa 0,0 l/m 0 min 0 min 58 W/m 12,9 km/h (3 Bft) 98,31 %
27.01.2023 13:08 4,7 C 4,4 C 1,7 C 92 % 1025,9 hPa 0,0 l/m 0 min 0 min 52 W/m 19,3 km/h (3 Bft) 97,14 %
27.01.2023 13:10 4,7 C 4,4 C 1,7 C 91 % 1025,9 hPa 0,0 l/m 0 min 0 min 51 W/m 16,1 km/h (3 Bft) 97,87 %
27.01.2023 13:12 4,7 C 4,4 C 1,7 C 91 % 1025,9 hPa 0,0 l/m 0 min 0 min 62 W/m 19,3 km/h (3 Bft) 97,87 %
27.01.2023 13:14 4,6 C 4,4 C 1,7 C 91 % 1025,9 hPa 0,0 l/m 0 min 0 min 56 W/m 22,5 km/h (4 Bft) 97,83 %
27.01.2023 13:16 4,6 C 4,4 C 1,7 C 91 % 1025,9 hPa 0,0 l/m 0 min 0 min 55 W/m 22,5 km/h (4 Bft) 97,87 %
27.01.2023 13:18 4,6 C 4,4 C 1,7 C 91 % 1025,9 hPa 0,0 l/m 0 min 0 min 53 W/m 16,1 km/h (3 Bft) 97,87 %
27.01.2023 13:20 4,6 C 4,4 C 1,7 C 91 % 1026,0 hPa 0,0 l/m 0 min 0 min 45 W/m 22,5 km/h (4 Bft) 97,87 %
27.01.2023 13:22 4,6 C 4,4 C 1,7 C 91 % 1026,0 hPa 0,0 l/m 0 min 0 min 54 W/m 16,1 km/h (3 Bft) 93,62 %
27.01.2023 13:24 4,6 C 4,4 C 1,7 C 91 % 1026,0 hPa 0,0 l/m 0 min 0 min 49 W/m 19,3 km/h (3 Bft) 100,00 %
27.01.2023 13:26 4,6 C 4,4 C 1,7 C 91 % 1026,0 hPa 0,0 l/m 0 min 0 min 42 W/m 22,5 km/h (4 Bft) 97,83 %
27.01.2023 13:28 4,6 C 4,4 C 1,7 C 91 % 1026,0 hPa 0,0 l/m 0 min 0 min 36 W/m 19,3 km/h (3 Bft) 100,00 %
27.01.2023 13:30 4,6 C 4,4 C 1,7 C 91 % 1026,1 hPa 0,0 l/m 0 min 0 min 37 W/m 12,9 km/h (3 Bft) 97,87 %
27.01.2023 13:32 4,6 C 4,4 C 1,7 C 91 % 1026,0 hPa 0,0 l/m 0 min 0 min 33 W/m 16,1 km/h (3 Bft) 97,87 %
27.01.2023 13:34 4,6 C 4,4 C 1,7 C 91 % 1026,0 hPa 0,0 l/m 0 min 0 min 34 W/m 19,3 km/h (3 Bft) 97,87 %
27.01.2023 13:36 4,6 C 4,4 C 1,7 C 91 % 1026,0 hPa 0,0 l/m 0 min 0 min 35 W/m 12,9 km/h (3 Bft) 95,74 %
27.01.2023 13:38 4,6 C 4,4 C 1,7 C 91 % 1026,0 hPa 0,0 l/m 0 min 0 min 32 W/m 12,9 km/h (3 Bft) 95,65 %
27.01.2023 13:40 4,6 C 4,4 C 1,7 C 91 % 1025,9 hPa 0,0 l/m 0 min 0 min 32 W/m 16,1 km/h (3 Bft) 97,87 %
27.01.2023 13:42 4,6 C 3,9 C 1,7 C 91 % 1025,9 hPa 0,0 l/m 0 min 0 min 27 W/m 16,1 km/h (3 Bft) 97,87 %
27.01.2023 13:44 4,5 C 3,9 C 1,7 C 91 % 1025,9 hPa 0,0 l/m 0 min 0 min 33 W/m 16,1 km/h (3 Bft) 97,87 %
27.01.2023 13:46 4,5 C 3,9 C 1,7 C 91 % 1025,8 hPa 0,0 l/m 0 min 0 min 36 W/m 12,9 km/h (3 Bft) 97,87 %
27.01.2023 13:48 4,5 C 3,9 C 1,7 C 91 % 1025,8 hPa 0,0 l/m 0 min 0 min 38 W/m 16,1 km/h (3 Bft) 97,87 %
27.01.2023 13:50 4,5 C 3,9 C 1,7 C 91 % 1025,8 hPa 0,0 l/m 0 min 0 min 34 W/m 19,3 km/h (3 Bft) 100,00 %
27.01.2023 13:52 4,5 C 3,9 C 1,7 C 91 % 1025,9 hPa 0,0 l/m 0 min 0 min 32 W/m 12,9 km/h (3 Bft) 100,00 %
27.01.2023 13:54 4,5 C 3,9 C 1,7 C 91 % 1025,9 hPa 0,0 l/m 0 min 0 min 35 W/m 32,2 km/h (5 Bft) 97,87 %
27.01.2023 13:56 4,5 C 3,9 C 1,7 C 90 % 1025,9 hPa 0,0 l/m 0 min 0 min 30 W/m 19,3 km/h (3 Bft) 97,87 %
27.01.2023 13:58 4,5 C 3,9 C 1,7 C 90 % 1025,9 hPa 0,0 l/m 0 min 0 min 33 W/m 25,7 km/h (4 Bft) 97,87 %
27.01.2023 14:00 4,5 C 4,4 C 1,7 C 90 % 1025,8 hPa 0,0 l/m 0 min 0 min 32 W/m 6,4 km/h (2 Bft) 97,87 %
27.01.2023 14:02 4,5 C 4,4 C 1,7 C 90 % 1025,8 hPa 0,0 l/m 0 min 0 min 32 W/m 9,7 km/h (2 Bft) 97,87 %
27.01.2023 14:04 4,5 C 4,4 C 1,7 C 90 % 1025,8 hPa 0,0 l/m 0 min 0 min 31 W/m 12,9 km/h (3 Bft) 97,83 %
27.01.2023 14:06 4,5 C 4,4 C 1,7 C 90 % 1025,8 hPa 0,0 l/m 0 min 0 min 28 W/m 22,5 km/h (4 Bft) 100,00 %
27.01.2023 14:08 4,6 C 4,4 C 1,7 C 90 % 1025,8 hPa 0,0 l/m 0 min 0 min 26 W/m 12,9 km/h (3 Bft) 100,00 %
27.01.2023 14:10 4,6 C 4,4 C 1,7 C 90 % 1025,8 hPa 0,0 l/m 0 min 0 min 28 W/m 22,5 km/h (4 Bft) 100,00 %
27.01.2023 14:12 4,6 C 4,4 C 1,7 C 90 % 1025,8 hPa 0,0 l/m 0 min 0 min 26 W/m 19,3 km/h (3 Bft) 97,87 %
27.01.2023 14:14 4,7 C 4,4 C 1,7 C 90 % 1025,8 hPa 0,0 l/m 0 min 0 min 32 W/m 9,7 km/h (2 Bft) 97,87 %
27.01.2023 14:16 4,7 C 4,4 C 1,7 C 90 % 1025,8 hPa 0,0 l/m 0 min 0 min 40 W/m 19,3 km/h (3 Bft) 100,00 %
27.01.2023 14:18 4,7 C 4,4 C 1,7 C 90 % 1025,8 hPa 0,0 l/m 0 min 0 min 35 W/m 19,3 km/h (3 Bft) 100,00 %
27.01.2023 14:20 4,7 C 4,4 C 1,7 C 89 % 1025,8 hPa 0,0 l/m 0 min 0 min 38 W/m 16,1 km/h (3 Bft) 97,87 %
27.01.2023 14:22 4,7 C 5,0 C 1,7 C 89 % 1025,8 hPa 0,0 l/m 0 min 0 min 33 W/m 6,4 km/h (2 Bft) 100,00 %
27.01.2023 14:24 4,7 C 5,0 C 1,7 C 89 % 1025,9 hPa 0,0 l/m 0 min 0 min 36 W/m 9,7 km/h (2 Bft) 100,00 %
27.01.2023 14:26 4,7 C 5,0 C 1,7 C 89 % 1025,9 hPa 0,0 l/m 0 min 0 min 36 W/m 16,1 km/h (3 Bft) 95,74 %
27.01.2023 14:28 4,8 C 5,0 C 1,7 C 89 % 1025,9 hPa 0,0 l/m 0 min 0 min 35 W/m 22,5 km/h (4 Bft) 100,00 %
27.01.2023 14:30 4,8 C 5,0 C 1,7 C 89 % 1025,9 hPa 0,0 l/m 0 min 0 min 27 W/m 9,7 km/h (2 Bft) 100,00 %
27.01.2023 14:32 4,8 C 4,4 C 1,7 C 89 % 1026,0 hPa 0,0 l/m 0 min 0 min 25 W/m 12,9 km/h (3 Bft) 100,00 %
27.01.2023 14:34 4,8 C 4,4 C 1,7 C 89 % 1026,0 hPa 0,0 l/m 0 min 0 min 22 W/m 19,3 km/h (3 Bft) 100,00 %
27.01.2023 14:36 4,8 C 4,4 C 1,7 C 89 % 1026,0 hPa 0,0 l/m 0 min 0 min 27 W/m 22,5 km/h (4 Bft) 97,87 %
27.01.2023 14:38 4,8 C 4,4 C 1,7 C 88 % 1026,0 hPa 0,0 l/m 0 min 0 min 39 W/m 9,7 km/h (2 Bft) 100,00 %
27.01.2023 14:40 4,8 C 5,0 C 1,7 C 88 % 1026,0 hPa 0,0 l/m 0 min 0 min 48 W/m 9,7 km/h (2 Bft) 100,00 %
27.01.2023 14:42 4,9 C 5,0 C 1,7 C 88 % 1026,1 hPa 0,0 l/m 0 min 0 min 35 W/m 12,9 km/h (3 Bft) 100,00 %
27.01.2023 14:44 4,9 C 5,0 C 1,7 C 88 % 1026,1 hPa 0,0 l/m 0 min 0 min 28 W/m 16,1 km/h (3 Bft) 97,83 %
27.01.2023 14:46 4,9 C 5,0 C 1,7 C 88 % 1026,1 hPa 0,0 l/m 0 min 0 min 27 W/m 9,7 km/h (2 Bft) 100,00 %
27.01.2023 14:48 4,9 C 5,0 C 1,7 C 88 % 1026,1 hPa 0,0 l/m 0 min 0 min 26 W/m 16,1 km/h (3 Bft) 100,00 %
27.01.2023 14:50 4,9 C 5,0 C 1,7 C 88 % 1026,1 hPa 0,0 l/m 0 min 0 min 28 W/m 9,7 km/h (2 Bft) 100,00 %
27.01.2023 14:52 4,9 C 5,0 C 1,7 C 88 % 1026,0 hPa 0,0 l/m 0 min 0 min 32 W/m 9,7 km/h (2 Bft) 100,00 %
27.01.2023 14:54 4,9 C 5,0 C 1,7 C 88 % 1026,1 hPa 0,0 l/m 0 min 0 min 28 W/m 9,7 km/h (2 Bft) 97,87 %
27.01.2023 14:56 4,9 C 5,0 C 1,7 C 88 % 1026,1 hPa 0,0 l/m 0 min 0 min 24 W/m 6,4 km/h (2 Bft) 95,65 %
27.01.2023 14:58 4,9 C 5,0 C 1,7 C 88 % 1026,2 hPa 0,0 l/m 0 min 0 min 20 W/m 12,9 km/h (3 Bft) 97,87 %
27.01.2023 15:00 5,0 C 5,0 C 1,7 C 88 % 1026,1 hPa 0,0 l/m 0 min 0 min 18 W/m 9,7 km/h (2 Bft) 97,87 %
27.01.2023 15:02 5,0 C 4,4 C 1,7 C 88 % 1026,1 hPa 0,0 l/m 0 min 0 min 18 W/m 19,3 km/h (3 Bft) 93,62 %
27.01.2023 15:04 4,9 C 4,4 C 1,7 C 88 % 1026,1 hPa 0,0 l/m 0 min 0 min 17 W/m 9,7 km/h (2 Bft) 97,87 %
27.01.2023 15:06 4,9 C 4,4 C 1,7 C 87 % 1026,1 hPa 0,0 l/m 0 min 0 min 17 W/m 12,9 km/h (3 Bft) 98,28 %
27.01.2023 15:08 4,9 C 4,4 C 1,7 C 87 % 1026,0 hPa 0,0 l/m 0 min 0 min 18 W/m 12,9 km/h (3 Bft) 97,22 %
27.01.2023 15:10 4,9 C 4,4 C 1,7 C 87 % 1026,0 hPa 0,0 l/m 0 min 0 min 18 W/m 12,9 km/h (3 Bft) 95,65 %
27.01.2023 15:12 4,9 C 4,4 C 1,7 C 87 % 1026,0 hPa 0,0 l/m 0 min 0 min 16 W/m 12,9 km/h (3 Bft) 97,87 %
27.01.2023 15:14 4,9 C 4,4 C 1,7 C 87 % 1026,1 hPa 0,0 l/m 0 min 0 min 16 W/m 12,9 km/h (3 Bft) 93,62 %
27.01.2023 15:16 4,9 C 4,4 C 1,7 C 87 % 1026,1 hPa 0,0 l/m 0 min 0 min 16 W/m 9,7 km/h (2 Bft) 97,87 %
27.01.2023 15:18 4,8 C 4,4 C 1,7 C 87 % 1026,1 hPa 0,0 l/m 0 min 0 min 17 W/m 16,1 km/h (3 Bft) 97,87 %
27.01.2023 15:20 4,8 C 4,4 C 1,7 C 87 % 1026,1 hPa 0,0 l/m 0 min 0 min 17 W/m 6,4 km/h (2 Bft) 95,74 %
27.01.2023 15:22 4,8 C 4,4 C 1,7 C 87 % 1026,1 hPa 0,0 l/m 0 min 0 min 19 W/m 25,7 km/h (4 Bft) 95,74 %
27.01.2023 15:24 4,8 C 4,4 C 1,7 C 87 % 1026,1 hPa 0,0 l/m 0 min 0 min 22 W/m 19,3 km/h (3 Bft) 93,48 %
27.01.2023 15:26 4,8 C 4,4 C 1,7 C 87 % 1026,1 hPa 0,0 l/m 0 min 0 min 23 W/m 16,1 km/h (3 Bft) 95,74 %
27.01.2023 15:28 4,8 C 4,4 C 1,7 C 87 % 1026,1 hPa 0,0 l/m 0 min 0 min 26 W/m 12,9 km/h (3 Bft) 93,62 %
27.01.2023 15:30 4,8 C 4,4 C 1,7 C 87 % 1026,2 hPa 0,0 l/m 0 min 0 min 33 W/m 16,1 km/h (3 Bft) 93,62 %
27.01.2023 15:32 4,8 C 4,4 C 1,7 C 87 % 1026,1 hPa 0,0 l/m 0 min 0 min 39 W/m 9,7 km/h (2 Bft) 91,49 %
27.01.2023 15:34 4,8 C 4,4 C 1,7 C 87 % 1026,1 hPa 0,0 l/m 0 min 0 min 45 W/m 16,1 km/h (3 Bft) 93,62 %
27.01.2023 15:36 4,8 C 4,4 C 1,7 C 87 % 1026,1 hPa 0,0 l/m 0 min 0 min 48 W/m 12,9 km/h (3 Bft) 91,49 %
27.01.2023 15:38 4,8 C 4,4 C 1,7 C 87 % 1026,1 hPa 0,0 l/m 0 min 0 min 51 W/m 12,9 km/h (3 Bft) 93,62 %
27.01.2023 15:40 4,8 C 4,4 C 1,7 C 87 % 1026,1 hPa 0,0 l/m 0 min 0 min 51 W/m 19,3 km/h (3 Bft) 93,62 %
27.01.2023 15:42 4,8 C 4,4 C 1,7 C 86 % 1026,1 hPa 0,0 l/m 0 min 0 min 43 W/m 12,9 km/h (3 Bft) 91,49 %
27.01.2023 15:44 4,8 C 4,4 C 1,7 C 86 % 1026,2 hPa 0,0 l/m 0 min 0 min 34 W/m 12,9 km/h (3 Bft) 93,62 %
27.01.2023 15:46 4,8 C 4,4 C 1,7 C 86 % 1026,2 hPa 0,0 l/m 0 min 0 min 27 W/m 12,9 km/h (3 Bft) 95,65 %
27.01.2023 15:48 4,8 C 4,4 C 1,7 C 86 % 1026,2 hPa 0,0 l/m 0 min 0 min 23 W/m 12,9 km/h (3 Bft) 95,74 %
27.01.2023 15:50 4,8 C 4,4 C 1,7 C 86 % 1026,2 hPa 0,0 l/m 0 min 0 min 19 W/m 19,3 km/h (3 Bft) 93,62 %
27.01.2023 15:52 4,8 C 4,4 C 1,7 C 86 % 1026,2 hPa 0,0 l/m 0 min 0 min 16 W/m 16,1 km/h (3 Bft) 93,62 %
27.01.2023 15:54 4,8 C 4,4 C 1,7 C 86 % 1026,2 hPa 0,0 l/m 0 min 0 min 14 W/m 22,5 km/h (4 Bft) 95,74 %
27.01.2023 15:56 4,8 C 4,4 C 1,7 C 86 % 1026,2 hPa 0,0 l/m 0 min 0 min 14 W/m 12,9 km/h (3 Bft) 97,87 %
27.01.2023 15:58 4,8 C 4,4 C 1,7 C 86 % 1026,2 hPa 0,0 l/m 0 min 0 min 18 W/m 25,7 km/h (4 Bft) 97,87 %
27.01.2023 16:00 4,8 C 4,4 C 1,1 C 86 % 1026,2 hPa 0,0 l/m 0 min 0 min 20 W/m 12,9 km/h (3 Bft) 95,65 %
27.01.2023 16:02 4,8 C 4,4 C 1,1 C 86 % 1026,3 hPa 0,0 l/m 0 min 0 min 17 W/m 16,1 km/h (3 Bft) 95,74 %
27.01.2023 16:04 4,8 C 4,4 C 1,1 C 86 % 1026,3 hPa 0,0 l/m 0 min 0 min 14 W/m 6,4 km/h (2 Bft) 97,87 %
27.01.2023 16:06 4,8 C 4,4 C 1,1 C 87 % 1026,3 hPa 0,0 l/m 0 min 0 min 15 W/m 6,4 km/h (2 Bft) 98,31 %
27.01.2023 16:08 4,8 C 4,4 C 1,1 C 87 % 1026,3 hPa 0,0 l/m 0 min 0 min 16 W/m 19,3 km/h (3 Bft) 100,00 %
27.01.2023 16:10 4,8 C 4,4 C 1,1 C 87 % 1026,3 hPa 0,0 l/m 0 min 0 min 16 W/m 9,7 km/h (2 Bft) 100,00 %
27.01.2023 16:12 4,8 C 4,4 C 1,1 C 87 % 1026,3 hPa 0,0 l/m 0 min 0 min 15 W/m 19,3 km/h (3 Bft) 100,00 %
27.01.2023 16:14 4,8 C 4,4 C 1,1 C 87 % 1026,3 hPa 0,0 l/m 0 min 0 min 13 W/m 12,9 km/h (3 Bft) 98,15 %
27.01.2023 16:16 4,8 C 4,4 C 1,1 C 87 % 1026,3 hPa 0,0 l/m 0 min 0 min 12 W/m 9,7 km/h (2 Bft) 100,00 %
27.01.2023 16:18 4,8 C 4,4 C 1,1 C 87 % 1026,4 hPa 0,0 l/m 0 min 0 min 12 W/m 12,9 km/h (3 Bft) 100,00 %
27.01.2023 16:20 4,8 C 4,4 C 1,1 C 87 % 1026,4 hPa 0,0 l/m 0 min 0 min 12 W/m 16,1 km/h (3 Bft) 100,00 %
27.01.2023 16:22 4,7 C 4,4 C 1,1 C 87 % 1026,5 hPa 0,0 l/m 0 min 0 min 11 W/m 9,7 km/h (2 Bft) 100,00 %
27.01.2023 16:24 4,7 C 4,4 C 1,1 C 87 % 1026,5 hPa 0,0 l/m 0 min 0 min 9 W/m 12,9 km/h (3 Bft) 100,00 %
27.01.2023 16:26 4,7 C 4,4 C 1,1 C 87 % 1026,5 hPa 0,0 l/m 0 min 0 min 10 W/m 19,3 km/h (3 Bft) 97,92 %
27.01.2023 16:28 4,7 C 4,4 C 1,1 C 87 % 1026,5 hPa 0,0 l/m 0 min 0 min 10 W/m 12,9 km/h (3 Bft) 95,74 %
27.01.2023 16:30 4,7 C 3,9 C 1,1 C 87 % 1026,6 hPa 0,0 l/m 0 min 0 min 8 W/m 9,7 km/h (2 Bft) 100,00 %
27.01.2023 16:32 4,7 C 3,9 C 1,1 C 87 % 1026,7 hPa 0,0 l/m 0 min 0 min 7 W/m 22,5 km/h (4 Bft) 97,87 %
27.01.2023 16:34 4,7 C 3,9 C 1,1 C 87 % 1026,6 hPa 0,0 l/m 0 min 0 min 6 W/m 22,5 km/h (4 Bft) 100,00 %
27.01.2023 16:36 4,6 C 3,9 C 1,1 C 87 % 1026,7 hPa 0,0 l/m 0 min 0 min 5 W/m 19,3 km/h (3 Bft) 100,00 %
27.01.2023 16:38 4,6 C 3,9 C 1,1 C 87 % 1026,7 hPa 0,0 l/m 0 min 0 min 5 W/m 19,3 km/h (3 Bft) 100,00 %
27.01.2023 16:40 4,6 C 3,9 C 1,1 C 87 % 1026,8 hPa 0,0 l/m 0 min 0 min 1 W/m 16,1 km/h (3 Bft) 100,00 %
27.01.2023 16:42 4,6 C 3,9 C 1,1 C 87 % 1026,7 hPa 0,0 l/m 0 min 0 min 0 W/m 16,1 km/h (3 Bft) 100,00 %
27.01.2023 16:44 4,6 C 3,9 C 1,1 C 87 % 1026,8 hPa 0,0 l/m 0 min 0 min 0 W/m 12,9 km/h (3 Bft) 100,00 %
27.01.2023 16:46 4,5 C 3,9 C 1,1 C 87 % 1026,8 hPa 0,0 l/m 0 min 0 min 0 W/m 22,5 km/h (4 Bft) 97,87 %
27.01.2023 16:48 4,5 C 3,9 C 1,1 C 87 % 1026,8 hPa 0,0 l/m 0 min 0 min 0 W/m 25,7 km/h (4 Bft) 97,87 %
27.01.2023 16:50 4,5 C 3,9 C 1,1 C 87 % 1026,8 hPa 0,0 l/m 0 min 0 min 0 W/m 16,1 km/h (3 Bft) 100,00 %
27.01.2023 16:52 4,5 C 3,9 C 1,1 C 87 % 1026,9 hPa 0,0 l/m 0 min 0 min 0 W/m 16,1 km/h (3 Bft) 100,00 %
27.01.2023 16:54 4,4 C 3,9 C 1,1 C 87 % 1026,8 hPa 0,0 l/m 0 min 0 min 0 W/m 16,1 km/h (3 Bft) 100,00 %
27.01.2023 16:56 4,4 C 3,9 C 0,6 C 87 % 1026,9 hPa 0,0 l/m 0 min 0 min 0 W/m 12,9 km/h (3 Bft) 50,00 %
27.01.2023 16:58 4,4 C 3,9 C 0,6 C 87 % 1026,9 hPa 0,0 l/m 0 min 0 min 0 W/m 9,7 km/h (2 Bft) 97,87 %
27.01.2023 17:00 4,4 C 3,9 C 0,6 C 87 % 1026,9 hPa 0,0 l/m 0 min 0 min 0 W/m 12,9 km/h (3 Bft) 97,87 %
27.01.2023 17:02 4,4 C 3,9 C 0,6 C 87 % 1026,9 hPa 0,0 l/m 0 min 0 min 0 W/m 12,9 km/h (3 Bft) 97,87 %
27.01.2023 17:04 4,3 C 3,9 C 0,6 C 88 % 1027,0 hPa 0,0 l/m 0 min 0 min 0 W/m 9,7 km/h (2 Bft) 100,00 %
27.01.2023 17:06 4,3 C 3,9 C 0,6 C 88 % 1027,0 hPa 0,0 l/m 0 min 0 min 0 W/m 16,1 km/h (3 Bft) 96,55 %
27.01.2023 17:08 4,3 C 3,9 C 0,6 C 88 % 1027,0 hPa 0,0 l/m 0 min 0 min 0 W/m 12,9 km/h (3 Bft) 100,00 %
27.01.2023 17:10 4,3 C 3,9 C 0,6 C 88 % 1027,0 hPa 0,0 l/m 0 min 0 min 0 W/m 12,9 km/h (3 Bft) 97,87 %
27.01.2023 17:12 4,3 C 3,9 C 0,6 C 88 % 1027,0 hPa 0,0 l/m 0 min 0 min 0 W/m 16,1 km/h (3 Bft) 100,00 %
27.01.2023 17:14 4,3 C 3,9 C 0,6 C 88 % 1027,0 hPa 0,0 l/m 0 min 0 min 0 W/m 12,9 km/h (3 Bft) 100,00 %
27.01.2023 17:16 4,3 C 3,9 C 0,6 C 88 % 1027,1 hPa 0,0 l/m 0 min 0 min 0 W/m 9,7 km/h (2 Bft) 97,87 %
27.01.2023 17:18 4,2 C 3,9 C 0,6 C 88 % 1027,1 hPa 0,0 l/m 0 min 0 min 0 W/m 9,7 km/h (2 Bft) 97,87 %
27.01.2023 17:20 4,2 C 3,9 C 0,6 C 88 % 1027,1 hPa 0,0 l/m 0 min 0 min 0 W/m 16,1 km/h (3 Bft) 97,83 %
27.01.2023 17:22 4,2 C 3,9 C 0,6 C 88 % 1027,1 hPa 0,0 l/m 0 min 0 min 0 W/m 9,7 km/h (2 Bft) 95,74 %
27.01.2023 17:24 4,2 C 3,9 C 0,6 C 88 % 1027,1 hPa 0,0 l/m 0 min 0 min 0 W/m 16,1 km/h (3 Bft) 97,87 %
27.01.2023 17:26 4,2 C 3,9 C 0,6 C 88 % 1027,1 hPa 0,0 l/m 0 min 0 min 0 W/m 9,7 km/h (2 Bft) 97,87 %
27.01.2023 17:28 4,2 C 3,9 C 0,6 C 88 % 1027,1 hPa 0,0 l/m 0 min 0 min 0 W/m 12,9 km/h (3 Bft) 93,62 %
27.01.2023 17:30 4,2 C 3,9 C 0,6 C 88 % 1027,1 hPa 0,0 l/m 0 min 0 min 0 W/m 22,5 km/h (4 Bft) 95,74 %
27.01.2023 17:32 4,2 C 3,9 C 0,6 C 88 % 1027,1 hPa 0,0 l/m 0 min 0 min 0 W/m 9,7 km/h (2 Bft) 95,74 %
27.01.2023 17:34 4,2 C 3,9 C 0,6 C 88 % 1027,2 hPa 0,0 l/m 0 min 0 min 0 W/m 6,4 km/h (2 Bft) 97,83 %
27.01.2023 17:36 4,2 C 3,9 C 0,6 C 88 % 1027,1 hPa 0,0 l/m 0 min 0 min 0 W/m 9,7 km/h (2 Bft) 97,87 %
27.01.2023 17:38 4,1 C 3,3 C 0,6 C 88 % 1027,2 hPa 0,0 l/m 0 min 0 min 0 W/m 3,2 km/h (1 Bft) 97,87 %
27.01.2023 17:40 4,2 C 3,3 C 0,6 C 88 % 1027,2 hPa 0,0 l/m 0 min 0 min 0 W/m 3,2 km/h (1 Bft) 97,87 %
27.01.2023 17:42 4,1 C 3,3 C 0,6 C 88 % 1027,2 hPa 0,0 l/m 0 min 0 min 0 W/m 3,2 km/h (1 Bft) 95,74 %
27.01.2023 17:44 4,1 C 3,3 C 0,6 C 88 % 1027,2 hPa 0,0 l/m 0 min 0 min 0 W/m 3,2 km/h (1 Bft) 97,87 %
27.01.2023 17:46 4,1 C 3,3 C 0,6 C 88 % 1027,2 hPa 0,0 l/m 0 min 0 min 0 W/m 6,4 km/h (2 Bft) 97,83 %
27.01.2023 17:48 4,1 C 3,3 C 0,6 C 89 % 1027,3 hPa 0,0 l/m 0 min 0 min 0 W/m 12,9 km/h (3 Bft) 95,74 %
27.01.2023 17:50 4,1 C 3,3 C 0,6 C 89 % 1027,3 hPa 0,0 l/m 0 min 0 min 0 W/m 6,4 km/h (2 Bft) 95,74 %
27.01.2023 17:52 4,1 C 3,3 C 0,6 C 89 % 1027,3 hPa 0,0 l/m 0 min 0 min 0 W/m 6,4 km/h (2 Bft) 100,00 %
27.01.2023 17:54 4,1 C 3,3 C 0,6 C 89 % 1027,4 hPa 0,0 l/m 0 min 0 min 0 W/m 9,7 km/h (2 Bft) 100,00 %
27.01.2023 17:56 4,1 C 3,3 C 0,6 C 88 % 1027,4 hPa 0,0 l/m 0 min 0 min 0 W/m 12,9 km/h (3 Bft) 93,62 %
27.01.2023 17:58 4,1 C 3,3 C 0,6 C 88 % 1027,4 hPa 0,0 l/m 0 min 0 min 0 W/m 9,7 km/h (2 Bft) 100,00 %
27.01.2023 18:00 4,1 C 3,3 C 0,6 C 88 % 1027,4 hPa 0,0 l/m 0 min 0 min 0 W/m 16,1 km/h (3 Bft) 97,87 %
27.01.2023 18:02 4,1 C 3,3 C 0,6 C 88 % 1027,4 hPa 0,0 l/m 0 min 0 min 0 W/m 12,9 km/h (3 Bft) 93,62 %
27.01.2023 18:04 4,1 C 3,3 C 0,6 C 88 % 1027,4 hPa 0,0 l/m 0 min 0 min 0 W/m 16,1 km/h (3 Bft) 95,74 %
27.01.2023 18:07 4,1 C 3,3 C 0,6 C 88 % 1027,4 hPa 0,0 l/m 0 min 0 min 0 W/m 16,1 km/h (3 Bft) 94,29 %
27.01.2023 18:08 4,1 C 3,3 C 0,6 C 88 % 1027,4 hPa 0,0 l/m 0 min 0 min 0 W/m 6,4 km/h (2 Bft) 95,83 %
27.01.2023 18:12 4,1 C 3,3 C 0,6 C 88 % 1027,5 hPa 0,0 l/m 0 min 0 min 0 W/m 9,7 km/h (2 Bft) 94,55 %
27.01.2023 18:14 4,1 C 3,3 C 0,6 C 88 % 1027,4 hPa 0,0 l/m 0 min 0 min 0 W/m 9,7 km/h (2 Bft) 95,74 %
27.01.2023 18:16 4,1 C 3,3 C 0,6 C 88 % 1027,4 hPa 0,0 l/m 0 min 0 min 0 W/m 12,9 km/h (3 Bft) 95,65 %
27.01.2023 18:18 4,1 C 3,3 C 0,6 C 88 % 1027,4 hPa 0,0 l/m 0 min 0 min 0 W/m 9,7 km/h (2 Bft) 95,74 %
27.01.2023 18:20 4,1 C 3,3 C 0,6 C 88 % 1027,5 hPa 0,0 l/m 0 min 0 min 0 W/m 12,9 km/h (3 Bft) 95,74 %
27.01.2023 18:22 4,1 C 3,3 C 0,6 C 88 % 1027,4 hPa 0,0 l/m 0 min 0 min 0 W/m 16,1 km/h (3 Bft) 95,74 %
27.01.2023 18:24 4,1 C 3,3 C 0,6 C 88 % 1027,5 hPa 0,0 l/m 0 min 0 min 0 W/m 16,1 km/h (3 Bft) 93,62 %
27.01.2023 18:26 4,1 C 3,3 C 0,6 C 88 % 1027,5 hPa 0,0 l/m 0 min 0 min 0 W/m 12,9 km/h (3 Bft) 93,62 %
27.01.2023 18:28 4,1 C 3,3 C 0,6 C 88 % 1027,5 hPa 0,0 l/m 0 min 0 min 0 W/m 9,7 km/h (2 Bft) 95,74 %
27.01.2023 18:30 4,1 C 3,3 C 0,6 C 88 % 1027,5 hPa 0,0 l/m 0 min 0 min 0 W/m 16,1 km/h (3 Bft) 95,74 %
27.01.2023 18:32 4,1 C 3,3 C 0,6 C 88 % 1027,5 hPa 0,0 l/m 0 min 0 min 0 W/m 9,7 km/h (2 Bft) 95,65 %
27.01.2023 18:34 4,0 C 3,3 C 0,6 C 88 % 1027,5 hPa 0,0 l/m 0 min 0 min 0 W/m 6,4 km/h (2 Bft) 95,74 %
27.01.2023 18:36 4,0 C 3,3 C 0,6 C 88 % 1027,5 hPa 0,0 l/m 0 min 0 min 0 W/m 9,7 km/h (2 Bft) 95,74 %
27.01.2023 18:38 4,0 C 3,3 C 0,6 C 88 % 1027,5 hPa 0,0 l/m 0 min 0 min 0 W/m 9,7 km/h (2 Bft) 93,62 %
27.01.2023 18:40 4,0 C 3,3 C 0,6 C 88 % 1027,5 hPa 0,0 l/m 0 min 0 min 0 W/m 19,3 km/h (3 Bft) 93,62 %
27.01.2023 18:42 4,0 C 3,3 C 0,6 C 88 % 1027,6 hPa 0,0 l/m 0 min 0 min 0 W/m 12,9 km/h (3 Bft) 91,49 %
27.01.2023 18:44 4,0 C 3,3 C 0,6 C 88 % 1027,6 hPa 0,0 l/m 0 min 0 min 0 W/m 12,9 km/h (3 Bft) 97,83 %
27.01.2023 18:46 4,0 C 3,3 C 0,6 C 88 % 1027,6 hPa 0,0 l/m 0 min 0 min 0 W/m 16,1 km/h (3 Bft) 95,74 %
27.01.2023 18:48 3,9 C 3,3 C 0,6 C 88 % 1027,6 hPa 0,0 l/m 0 min 0 min 0 W/m 16,1 km/h (3 Bft) 97,87 %
27.01.2023 18:50 3,9 C 3,3 C 0,6 C 88 % 1027,6 hPa 0,0 l/m 0 min 0 min 0 W/m 12,9 km/h (3 Bft) 97,87 %
27.01.2023 18:52 3,9 C 3,3 C 0,6 C 88 % 1027,6 hPa 0,0 l/m 0 min 0 min 0 W/m 3,2 km/h (1 Bft) 95,74 %
27.01.2023 18:54 3,9 C 3,3 C 0,6 C 88 % 1027,6 hPa 0,0 l/m 0 min 0 min 0 W/m 16,1 km/h (3 Bft) 100,00 %
27.01.2023 18:56 3,9 C 3,3 C 0,6 C 88 % 1027,6 hPa 0,0 l/m 0 min 0 min 0 W/m 6,4 km/h (2 Bft) 100,00 %
27.01.2023 18:58 3,9 C 3,3 C 0,6 C 88 % 1027,6 hPa 0,0 l/m 0 min 0 min 0 W/m 16,1 km/h (3 Bft) 95,74 %
27.01.2023 19:00 3,9 C 3,3 C 0,6 C 88 % 1027,6 hPa 0,0 l/m 0 min 0 min 0 W/m 12,9 km/h (3 Bft) 95,74 %
27.01.2023 19:02 3,9 C 3,3 C 0,6 C 88 % 1027,7 hPa 0,0 l/m 0 min 0 min 0 W/m 9,7 km/h (2 Bft) 97,87 %
27.01.2023 19:04 3,9 C 3,3 C 0,6 C 88 % 1027,7 hPa 0,0 l/m 0 min 0 min 0 W/m 3,2 km/h (1 Bft) 100,00 %
27.01.2023 19:06 3,9 C 3,3 C 0,6 C 88 % 1027,7 hPa 0,0 l/m 0 min 0 min 0 W/m 12,9 km/h (3 Bft) 94,83 %
27.01.2023 19:08 3,9 C 3,3 C 0,6 C 88 % 1027,7 hPa 0,0 l/m 0 min 0 min 0 W/m 6,4 km/h (2 Bft) 91,43 %
27.01.2023 19:10 3,9 C 3,3 C 0,6 C 88 % 1027,7 hPa 0,0 l/m 0 min 0 min 0 W/m 19,3 km/h (3 Bft) 97,87 %
27.01.2023 19:12 3,9 C 3,3 C 0,6 C 88 % 1027,7 hPa 0,0 l/m 0 min 0 min 0 W/m 16,1 km/h (3 Bft) 95,74 %
27.01.2023 19:14 3,9 C 3,3 C 0,6 C 88 % 1027,8 hPa 0,0 l/m 0 min 0 min 0 W/m 6,4 km/h (2 Bft) 97,87 %
27.01.2023 19:16 3,9 C 3,3 C 0,6 C 88 % 1027,8 hPa 0,0 l/m 0 min 0 min 0 W/m 12,9 km/h (3 Bft) 95,74 %
27.01.2023 19:18 3,9 C 3,3 C 0,6 C 88 % 1027,8 hPa 0,0 l/m 0 min 0 min 0 W/m 12,9 km/h (3 Bft) 95,74 %
27.01.2023 19:20 3,9 C 3,3 C 0,6 C 88 % 1027,8 hPa 0,0 l/m 0 min 0 min 0 W/m 6,4 km/h (2 Bft) 95,74 %
27.01.2023 19:22 3,9 C 3,3 C 0,6 C 88 % 1027,8 hPa 0,0 l/m 0 min 0 min 0 W/m 6,4 km/h (2 Bft) 95,65 %
27.01.2023 19:24 3,9 C 3,3 C 0,6 C 88 % 1027,8 hPa 0,0 l/m 0 min 0 min 0 W/m 3,2 km/h (1 Bft) 95,74 %
27.01.2023 19:26 3,9 C 3,3 C 0,6 C 88 % 1027,8 hPa 0,0 l/m 0 min 0 min 0 W/m 6,4 km/h (2 Bft) 91,49 %
27.01.2023 19:28 3,9 C 3,3 C 0,6 C 88 % 1027,9 hPa 0,0 l/m 0 min 0 min 0 W/m 12,9 km/h (3 Bft) 97,87 %
27.01.2023 19:30 3,9 C 3,3 C 0,6 C 88 % 1027,9 hPa 0,0 l/m 0 min 0 min 0 W/m 3,2 km/h (1 Bft) 97,87 %
27.01.2023 19:32 3,9 C 3,3 C 0,6 C 88 % 1027,9 hPa 0,0 l/m 0 min 0 min 0 W/m 22,5 km/h (4 Bft) 97,87 %
27.01.2023 19:34 3,9 C 3,3 C 0,6 C 88 % 1027,9 hPa 0,0 l/m 0 min 0 min 0 W/m 22,5 km/h (4 Bft) 97,87 %
27.01.2023 19:36 3,9 C 3,3 C 0,6 C 88 % 1027,9 hPa 0,0 l/m 0 min 0 min 0 W/m 3,2 km/h (1 Bft) 97,83 %
27.01.2023 19:38 3,9 C 3,3 C 0,6 C 88 % 1028,0 hPa 0,0 l/m 0 min 0 min 0 W/m 12,9 km/h (3 Bft) 97,87 %
27.01.2023 19:40 3,8 C 3,3 C 0,6 C 88 % 1028,0 hPa 0,0 l/m 0 min 0 min 0 W/m 6,4 km/h (2 Bft) 100,00 %
27.01.2023 19:42 3,8 C 3,3 C 0,6 C 88 % 1028,0 hPa 0,0 l/m 0 min 0 min 0 W/m 19,3 km/h (3 Bft) 100,00 %
27.01.2023 19:44 3,8 C 3,3 C 0,6 C 88 % 1028,0 hPa 0,0 l/m 0 min 0 min 0 W/m 12,9 km/h (3 Bft) 100,00 %
27.01.2023 19:46 3,8 C 3,3 C 0,6 C 88 % 1028,0 hPa 0,0 l/m 0 min 0 min 0 W/m 16,1 km/h (3 Bft) 100,00 %
27.01.2023 19:48 3,8 C 3,3 C 0,6 C 88 % 1028,0 hPa 0,0 l/m 0 min 0 min 0 W/m 12,9 km/h (3 Bft) 100,00 %
27.01.2023 19:50 3,8 C 3,3 C 0,6 C 88 % 1028,0 hPa 0,0 l/m 0 min 0 min 0 W/m 6,4 km/h (2 Bft) 100,00 %
27.01.2023 19:52 3,8 C 3,3 C 0,6 C 88 % 1028,1 hPa 0,0 l/m 0 min 0 min 0 W/m 12,9 km/h (3 Bft) 95,74 %
27.01.2023 19:54 3,8 C 3,3 C 0,6 C 88 % 1028,1 hPa 0,0 l/m 0 min 0 min 0 W/m 9,7 km/h (2 Bft) 100,00 %
27.01.2023 19:56 3,8 C 3,3 C 0,6 C 88 % 1028,1 hPa 0,0 l/m 0 min 0 min 0 W/m 12,9 km/h (3 Bft) 97,87 %
27.01.2023 19:58 3,8 C 3,3 C 0,6 C 88 % 1028,1 hPa 0,0 l/m 0 min 0 min 0 W/m 9,7 km/h (2 Bft) 97,87 %
27.01.2023 20:00 3,8 C 3,3 C 0,0 C 88 % 1028,0 hPa 0,0 l/m 0 min 0 min 0 W/m 12,9 km/h (3 Bft) 100,00 %
27.01.2023 20:02 3,8 C 3,3 C 0,0 C 88 % 1028,0 hPa 0,0 l/m 0 min 0 min 0 W/m 6,4 km/h (2 Bft) 100,00 %
27.01.2023 20:04 3,8 C 3,3 C 0,0 C 88 % 1028,1 hPa 0,0 l/m 0 min 0 min 0 W/m 6,4 km/h (2 Bft) 97,87 %
27.01.2023 20:06 3,8 C 3,3 C 0,0 C 88 % 1028,1 hPa 0,0 l/m 0 min 0 min 0 W/m 3,2 km/h (1 Bft) 100,00 %
27.01.2023 20:08 3,8 C 3,3 C 0,0 C 89 % 1028,1 hPa 0,0 l/m 0 min 0 min 0 W/m 9,7 km/h (2 Bft) 91,43 %
27.01.2023 20:10 3,8 C 3,3 C 0,0 C 88 % 1028,1 hPa 0,0 l/m 0 min 0 min 0 W/m 9,7 km/h (2 Bft) 100,00 %
27.01.2023 20:12 3,8 C 3,3 C 0,0 C 88 % 1028,1 hPa 0,0 l/m 0 min 0 min 0 W/m 9,7 km/h (2 Bft) 95,74 %
27.01.2023 20:14 3,7 C 3,3 C 0,0 C 88 % 1028,1 hPa 0,0 l/m 0 min 0 min 0 W/m 3,2 km/h (1 Bft) 100,00 %
27.01.2023 20:16 3,7 C 3,3 C 0,0 C 88 % 1028,2 hPa 0,0 l/m 0 min 0 min 0 W/m 6,4 km/h (2 Bft) 100,00 %
27.01.2023 20:18 3,7 C 3,3 C 0,0 C 88 % 1028,2 hPa 0,0 l/m 0 min 0 min 0 W/m 12,9 km/h (3 Bft) 97,87 %
27.01.2023 20:20 3,7 C 3,3 C 0,0 C 88 % 1028,2 hPa 0,0 l/m 0 min 0 min 0 W/m 12,9 km/h (3 Bft) 100,00 %
27.01.2023 20:22 3,7 C 3,3 C 0,0 C 88 % 1028,3 hPa 0,0 l/m 0 min 0 min 0 W/m 6,4 km/h (2 Bft) 95,74 %
27.01.2023 20:24 3,7 C 3,3 C 0,0 C 88 % 1028,2 hPa 0,0 l/m 0 min 0 min 0 W/m 9,7 km/h (2 Bft) 97,87 %
27.01.2023 20:26 3,7 C 3,3 C 0,0 C 88 % 1028,2 hPa 0,0 l/m 0 min 0 min 0 W/m 6,4 km/h (2 Bft) 97,87 %
27.01.2023 20:28 3,7 C 2,8 C 0,0 C 89 % 1028,3 hPa 0,0 l/m 0 min 0 min 0 W/m 6,4 km/h (2 Bft) 100,00 %
27.01.2023 20:30 3,7 C 2,8 C 0,0 C 89 % 1028,3 hPa 0,0 l/m 0 min 0 min 0 W/m 9,7 km/h (2 Bft) 100,00 %
27.01.2023 20:32 3,6 C 2,8 C 0,0 C 89 % 1028,2 hPa 0,0 l/m 0 min 0 min 0 W/m 9,7 km/h (2 Bft) 100,00 %
27.01.2023 20:34 3,6 C 2,8 C 0,0 C 89 % 1028,2 hPa 0,0 l/m 0 min 0 min 0 W/m 9,7 km/h (2 Bft) 97,87 %
27.01.2023 20:36 3,6 C 2,8 C 0,0 C 89 % 1028,2 hPa 0,0 l/m 0 min 0 min 0 W/m 6,4 km/h (2 Bft) 95,74 %
27.01.2023 20:38 3,6 C 2,8 C 0,0 C 89 % 1028,2 hPa 0,0 l/m 0 min 0 min 0 W/m 6,4 km/h (2 Bft) 93,62 %
27.01.2023 20:40 3,6 C 2,8 C 0,0 C 89 % 1028,2 hPa 0,0 l/m 0 min 0 min 0 W/m 3,2 km/h (1 Bft) 95,74 %
27.01.2023 20:42 3,6 C 2,8 C 0,0 C 89 % 1028,3 hPa 0,0 l/m 0 min 0 min 0 W/m 3,2 km/h (1 Bft) 97,83 %
27.01.2023 20:44 3,6 C 2,8 C 0,0 C 89 % 1028,3 hPa 0,0 l/m 0 min 0 min 0 W/m 6,4 km/h (2 Bft) 98,00 %
27.01.2023 20:46 3,6 C 2,8 C 0,0 C 89 % 1028,3 hPa 0,0 l/m 0 min 0 min 0 W/m 3,2 km/h (1 Bft) 97,87 %
27.01.2023 20:48 3,6 C 2,8 C 0,0 C 89 % 1028,3 hPa 0,0 l/m 0 min 0 min 0 W/m 3,2 km/h (1 Bft) 97,87 %
27.01.2023 20:50 3,6 C 2,8 C 0,0 C 89 % 1028,3 hPa 0,0 l/m 0 min 0 min 0 W/m 12,9 km/h (3 Bft) 97,87 %
27.01.2023 20:52 3,6 C 2,8 C 0,0 C 89 % 1028,3 hPa 0,0 l/m 0 min 0 min 0 W/m 12,9 km/h (3 Bft) 95,74 %
27.01.2023 20:54 3,6 C 2,8 C 0,0 C 89 % 1028,4 hPa 0,0 l/m 0 min 0 min 0 W/m 9,7 km/h (2 Bft) 97,87 %
27.01.2023 20:56 3,6 C 2,8 C 0,0 C 89 % 1028,4 hPa 0,0 l/m 0 min 0 min 0 W/m 6,4 km/h (2 Bft) 54,35 %
27.01.2023 20:58 3,6 C 2,8 C 0,0 C 89 % 1028,4 hPa 0,0 l/m 0 min 0 min 0 W/m 6,4 km/h (2 Bft) 97,83 %
27.01.2023 21:00 3,6 C 2,8 C 0,0 C 89 % 1028,4 hPa 0,0 l/m 0 min 0 min 0 W/m 6,4 km/h (2 Bft) 89,36 %
27.01.2023 21:02 3,6 C 2,8 C 0,0 C 89 % 1028,5 hPa 0,0 l/m 0 min 0 min 0 W/m 6,4 km/h (2 Bft) 91,49 %
27.01.2023 21:04 3,6 C 2,8 C 0,0 C 89 % 1028,5 hPa 0,0 l/m 0 min 0 min 0 W/m 9,7 km/h (2 Bft) 93,62 %
27.01.2023 21:06 3,6 C 2,8 C 0,0 C 89 % 1028,5 hPa 0,0 l/m 0 min 0 min 0 W/m 6,4 km/h (2 Bft) 91,49 %
27.01.2023 21:08 3,6 C 2,8 C 0,0 C 89 % 1028,5 hPa 0,0 l/m 0 min 0 min 0 W/m 0,0 km/h (0 Bft) 93,62 %
27.01.2023 21:10 3,6 C 2,8 C 0,0 C 89 % 1028,5 hPa 0,0 l/m 0 min 0 min 0 W/m 9,7 km/h (2 Bft) 93,62 %
27.01.2023 21:12 3,6 C 2,8 C 0,0 C 89 % 1028,5 hPa 0,0 l/m 0 min 0 min 0 W/m 6,4 km/h (2 Bft) 93,48 %
27.01.2023 21:14 3,5 C 2,8 C 0,0 C 89 % 1028,4 hPa 0,0 l/m 0 min 0 min 0 W/m 3,2 km/h (1 Bft) 93,62 %
27.01.2023 21:16 3,5 C 2,8 C 0,0 C 89 % 1028,5 hPa 0,0 l/m 0 min 0 min 0 W/m 9,7 km/h (2 Bft) 87,23 %
27.01.2023 21:18 3,5 C 2,8 C 0,0 C 89 % 1028,5 hPa 0,0 l/m 0 min 0 min 0 W/m 6,4 km/h (2 Bft) 95,74 %
27.01.2023 21:20 3,5 C 2,8 C 0,0 C 89 % 1028,4 hPa 0,0 l/m 0 min 0 min 0 W/m 6,4 km/h (2 Bft) 95,74 %
27.01.2023 21:22 3,5 C 2,8 C 0,0 C 89 % 1028,4 hPa 0,0 l/m 0 min 0 min 0 W/m 6,4 km/h (2 Bft) 95,74 %
27.01.2023 21:24 3,5 C 2,8 C 0,0 C 89 % 1028,5 hPa 0,0 l/m 0 min 0 min 0 W/m 12,9 km/h (3 Bft) 93,62 %
27.01.2023 21:26 3,5 C 2,8 C 0,0 C 89 % 1028,5 hPa 0,0 l/m 0 min 0 min 0 W/m 6,4 km/h (2 Bft) 95,65 %
27.01.2023 21:28 3,4 C 2,8 C 0,0 C 89 % 1028,5 hPa 0,0 l/m 0 min 0 min 0 W/m 6,4 km/h (2 Bft) 95,74 %
27.01.2023 21:30 3,4 C 2,8 C 0,0 C 89 % 1028,5 hPa 0,0 l/m 0 min 0 min 0 W/m 6,4 km/h (2 Bft) 95,74 %
27.01.2023 21:32 3,4 C 2,8 C 0,0 C 89 % 1028,5 hPa 0,0 l/m 0 min 0 min 0 W/m 9,7 km/h (2 Bft) 95,74 %
27.01.2023 21:34 3,4 C 2,8 C 0,0 C 89 % 1028,5 hPa 0,0 l/m 0 min 0 min 0 W/m 6,4 km/h (2 Bft) 95,74 %
27.01.2023 21:36 3,4 C 2,8 C 0,0 C 88 % 1028,5 hPa 0,0 l/m 0 min 0 min 0 W/m 6,4 km/h (2 Bft) 95,74 %
27.01.2023 21:38 3,4 C 2,8 C 0,0 C 89 % 1028,5 hPa 0,0 l/m 0 min 0 min 0 W/m 12,9 km/h (3 Bft) 95,65 %
27.01.2023 21:40 3,4 C 2,8 C 0,0 C 88 % 1028,5 hPa 0,0 l/m 0 min 0 min 0 W/m 6,4 km/h (2 Bft) 95,74 %
27.01.2023 21:42 3,4 C 2,8 C 0,0 C 88 % 1028,5 hPa 0,0 l/m 0 min 0 min 0 W/m 12,9 km/h (3 Bft) 97,87 %
27.01.2023 21:44 3,4 C 2,8 C 0,0 C 88 % 1028,6 hPa 0,0 l/m 0 min 0 min 0 W/m 9,7 km/h (2 Bft) 97,87 %
27.01.2023 21:46 3,4 C 2,8 C 0,0 C 88 % 1028,6 hPa 0,0 l/m 0 min 0 min 0 W/m 6,4 km/h (2 Bft) 97,87 %
27.01.2023 21:48 3,4 C 2,8 C 0,0 C 88 % 1028,6 hPa 0,0 l/m 0 min 0 min 0 W/m 19,3 km/h (3 Bft) 97,87 %
27.01.2023 21:50 3,4 C 2,8 C 0,0 C 88 % 1028,5 hPa 0,0 l/m 0 min 0 min 0 W/m 9,7 km/h (2 Bft) 97,87 %
27.01.2023 21:52 3,4 C 2,8 C 0,0 C 88 % 1028,6 hPa 0,0 l/m 0 min 0 min 0 W/m 6,4 km/h (2 Bft) 100,00 %
27.01.2023 21:54 3,4 C 2,8 C 0,0 C 88 % 1028,5 hPa 0,0 l/m 0 min 0 min 0 W/m 3,2 km/h (1 Bft) 55,56 %
27.01.2023 21:56 3,4 C 2,8 C 0,0 C 88 % 1028,6 hPa 0,0 l/m 0 min 0 min 0 W/m 6,4 km/h (2 Bft) 100,00 %
27.01.2023 21:58 3,4 C 2,8 C 0,0 C 88 % 1028,5 hPa 0,0 l/m 0 min 0 min 0 W/m 19,3 km/h (3 Bft) 97,87 %
27.01.2023 22:00 3,4 C 2,8 C 0,0 C 88 % 1028,6 hPa 0,0 l/m 0 min 0 min 0 W/m 19,3 km/h (3 Bft) 100,00 %
27.01.2023 22:02 3,4 C 2,8 C 0,0 C 88 % 1028,6 hPa 0,0 l/m 0 min 0 min 0 W/m 6,4 km/h (2 Bft) 100,00 %
27.01.2023 22:04 3,4 C 2,8 C 0,0 C 87 % 1028,6 hPa 0,0 l/m 0 min 0 min 0 W/m 9,7 km/h (2 Bft) 97,87 %
27.01.2023 22:06 3,4 C 2,8 C 0,0 C 87 % 1028,6 hPa 0,0 l/m 0 min 0 min 0 W/m 6,4 km/h (2 Bft) 100,00 %
27.01.2023 22:08 3,4 C 2,8 C 0,0 C 87 % 1028,6 hPa 0,0 l/m 0 min 0 min 0 W/m 12,9 km/h (3 Bft) 97,87 %
27.01.2023 22:10 3,4 C 2,8 C 0,0 C 87 % 1028,6 hPa 0,0 l/m 0 min 0 min 0 W/m 6,4 km/h (2 Bft) 100,00 %
27.01.2023 22:12 3,4 C 2,8 C 0,0 C 87 % 1028,6 hPa 0,0 l/m 0 min 0 min 0 W/m 25,7 km/h (4 Bft) 97,87 %
27.01.2023 22:14 3,4 C 2,8 C 0,0 C 87 % 1028,7 hPa 0,0 l/m 0 min 0 min 0 W/m 16,1 km/h (3 Bft) 100,00 %
27.01.2023 22:16 3,4 C 2,8 C 0,0 C 87 % 1028,7 hPa 0,0 l/m 0 min 0 min 0 W/m 12,9 km/h (3 Bft) 97,87 %
27.01.2023 22:18 3,4 C 2,8 C 0,0 C 87 % 1028,7 hPa 0,0 l/m 0 min 0 min 0 W/m 16,1 km/h (3 Bft) 97,83 %
27.01.2023 22:20 3,4 C 2,8 C 0,0 C 87 % 1028,6 hPa 0,0 l/m 0 min 0 min 0 W/m 16,1 km/h (3 Bft) 100,00 %
27.01.2023 22:22 3,4 C 2,8 C 0,0 C 87 % 1028,7 hPa 0,0 l/m 0 min 0 min 0 W/m 12,9 km/h (3 Bft) 95,74 %
27.01.2023 22:24 3,4 C 2,8 C 0,0 C 87 % 1028,7 hPa 0,0 l/m 0 min 0 min 0 W/m 6,4 km/h (2 Bft) 100,00 %
27.01.2023 22:26 3,4 C 2,8 C 0,0 C 87 % 1028,7 hPa 0,0 l/m 0 min 0 min 0 W/m 12,9 km/h (3 Bft) 97,14 %
27.01.2023 22:28 3,4 C 2,8 C 0,0 C 87 % 1028,7 hPa 0,0 l/m 0 min 0 min 0 W/m 9,7 km/h (2 Bft) 100,00 %
27.01.2023 22:30 3,4 C 2,8 C 0,0 C 87 % 1028,7 hPa 0,0 l/m 0 min 0 min 0 W/m 6,4 km/h (2 Bft) 100,00 %
27.01.2023 22:32 3,4 C 2,8 C 0,0 C 87 % 1028,8 hPa 0,0 l/m 0 min 0 min 0 W/m 6,4 km/h (2 Bft) 100,00 %
27.01.2023 22:34 3,4 C 2,8 C 0,0 C 87 % 1028,7 hPa 0,0 l/m 0 min 0 min 0 W/m 6,4 km/h (2 Bft) 100,00 %
27.01.2023 22:36 3,4 C 2,8 C 0,0 C 87 % 1028,7 hPa 0,0 l/m 0 min 0 min 0 W/m 6,4 km/h (2 Bft) 100,00 %
27.01.2023 22:38 3,4 C 2,8 C 0,0 C 87 % 1028,6 hPa 0,0 l/m 0 min 0 min 0 W/m 6,4 km/h (2 Bft) 100,00 %
27.01.2023 22:40 3,4 C 2,8 C 0,0 C 87 % 1028,6 hPa 0,0 l/m 0 min 0 min 0 W/m 16,1 km/h (3 Bft) 100,00 %
27.01.2023 22:42 3,4 C 2,8 C 0,0 C 87 % 1028,6 hPa 0,0 l/m 0 min 0 min 0 W/m 12,9 km/h (3 Bft) 100,00 %
27.01.2023 22:44 3,4 C 2,8 C 0,0 C 87 % 1028,6 hPa 0,0 l/m 0 min 0 min 0 W/m 9,7 km/h (2 Bft) 100,00 %
27.01.2023 22:46 3,4 C 2,8 C 0,0 C 87 % 1028,6 hPa 0,0 l/m 0 min 0 min 0 W/m 9,7 km/h (2 Bft) 97,22 %
27.01.2023 22:48 3,4 C 2,8 C 0,0 C 87 % 1028,5 hPa 0,0 l/m 0 min 0 min 0 W/m 6,4 km/h (2 Bft) 97,87 %
27.01.2023 22:50 3,4 C 2,8 C 0,0 C 87 % 1028,5 hPa 0,0 l/m 0 min 0 min 0 W/m 9,7 km/h (2 Bft) 98,25 %
27.01.2023 22:52 3,4 C 2,8 C 0,0 C 87 % 1028,5 hPa 0,0 l/m 0 min 0 min 0 W/m 6,4 km/h (2 Bft) 28,57 %
27.01.2023 22:57 3,4 C 2,8 C 0,0 C 87 % 1028,5 hPa 0,0 l/m 0 min 0 min 0 W/m 12,9 km/h (3 Bft) 100,00 %
27.01.2023 23:02 3,4 C 2,8 C 0,0 C 87 % 1028,5 hPa 0,0 l/m 0 min 0 min 0 W/m 16,1 km/h (3 Bft) 100,00 %
27.01.2023 23:04 3,4 C 2,8 C 0,0 C 87 % 1028,5 hPa 0,0 l/m 0 min 0 min 0 W/m 9,7 km/h (2 Bft) 95,74 %
27.01.2023 23:06 3,4 C 2,8 C 0,0 C 87 % 1028,5 hPa 0,0 l/m 0 min 0 min 0 W/m 9,7 km/h (2 Bft) 95,74 %
27.01.2023 23:08 3,4 C 2,8 C 0,0 C 87 % 1028,5 hPa 0,0 l/m 0 min 0 min 0 W/m 3,2 km/h (1 Bft) 95,74 %
27.01.2023 23:10 3,3 C 2,8 C 0,0 C 87 % 1028,6 hPa 0,0 l/m 0 min 0 min 0 W/m 6,4 km/h (2 Bft) 95,65 %
27.01.2023 23:12 3,3 C 2,8 C 0,0 C 88 % 1028,5 hPa 0,0 l/m 0 min 0 min 0 W/m 3,2 km/h (1 Bft) 95,74 %
27.01.2023 23:14 3,3 C 2,8 C 0,0 C 88 % 1028,5 hPa 0,0 l/m 0 min 0 min 0 W/m 3,2 km/h (1 Bft) 93,62 %
27.01.2023 23:16 3,3 C 2,8 C 0,0 C 88 % 1028,5 hPa 0,0 l/m 0 min 0 min 0 W/m 3,2 km/h (1 Bft) 95,74 %
27.01.2023 23:18 3,3 C 2,8 C 0,0 C 88 % 1028,5 hPa 0,0 l/m 0 min 0 min 0 W/m 6,4 km/h (2 Bft) 93,62 %
27.01.2023 23:20 3,3 C 2,8 C -0,6 C 88 % 1028,5 hPa 0,0 l/m 0 min 0 min 0 W/m 6,4 km/h (2 Bft) 91,49 %
27.01.2023 23:22 3,3 C 2,8 C -0,6 C 88 % 1028,5 hPa 0,0 l/m 0 min 0 min 0 W/m 12,9 km/h (3 Bft) 95,65 %
27.01.2023 23:24 3,3 C 2,8 C -0,6 C 88 % 1028,5 hPa 0,0 l/m 0 min 0 min 0 W/m 3,2 km/h (1 Bft) 97,87 %
27.01.2023 23:26 3,3 C 2,8 C -0,6 C 88 % 1028,5 hPa 0,0 l/m 0 min 0 min 0 W/m 6,4 km/h (2 Bft) 95,74 %
27.01.2023 23:28 3,3 C 2,8 C -0,6 C 88 % 1028,5 hPa 0,0 l/m 0 min 0 min 0 W/m 6,4 km/h (2 Bft) 97,87 %
27.01.2023 23:30 3,3 C 2,8 C -0,6 C 88 % 1028,5 hPa 0,0 l/m 0 min 0 min 0 W/m 6,4 km/h (2 Bft) 97,87 %
27.01.2023 23:32 3,3 C 2,8 C -0,6 C 88 % 1028,5 hPa 0,0 l/m 0 min 0 min 0 W/m 6,4 km/h (2 Bft) 95,74 %
27.01.2023 23:34 3,2 C 2,8 C -0,6 C 88 % 1028,5 hPa 0,0 l/m 0 min 0 min 0 W/m 6,4 km/h (2 Bft) 97,87 %
27.01.2023 23:36 3,2 C 2,8 C -0,6 C 88 % 1028,5 hPa 0,0 l/m 0 min 0 min 0 W/m 9,7 km/h (2 Bft) 97,83 %
27.01.2023 23:38 3,2 C 2,8 C -0,6 C 88 % 1028,5 hPa 0,0 l/m 0 min 0 min 0 W/m 6,4 km/h (2 Bft) 95,74 %
27.01.2023 23:40 3,2 C 2,8 C -0,6 C 88 % 1028,5 hPa 0,0 l/m 0 min 0 min 0 W/m 9,7 km/h (2 Bft) 97,87 %
27.01.2023 23:42 3,2 C 2,8 C -0,6 C 88 % 1028,5 hPa 0,0 l/m 0 min 0 min 0 W/m 6,4 km/h (2 Bft) 95,74 %
27.01.2023 23:44 3,2 C 2,8 C -0,6 C 88 % 1028,5 hPa 0,0 l/m 0 min 0 min 0 W/m 12,9 km/h (3 Bft) 97,87 %
27.01.2023 23:46 3,2 C 2,8 C -0,6 C 88 % 1028,5 hPa 0,0 l/m 0 min 0 min 0 W/m 12,9 km/h (3 Bft) 97,87 %
27.01.2023 23:48 3,2 C 2,8 C -0,6 C 88 % 1028,5 hPa 0,0 l/m 0 min 0 min 0 W/m 9,7 km/h (2 Bft) 97,83 %
27.01.2023 23:50 3,2 C 2,8 C -0,6 C 88 % 1028,5 hPa 0,0 l/m 0 min 0 min 0 W/m 9,7 km/h (2 Bft) 100,00 %
27.01.2023 23:52 3,2 C 2,8 C -0,6 C 88 % 1028,5 hPa 0,0 l/m 0 min 0 min 0 W/m 12,9 km/h (3 Bft) 100,00 %
27.01.2023 23:54 3,2 C 2,8 C -0,6 C 88 % 1028,4 hPa 0,0 l/m 0 min 0 min 0 W/m 19,3 km/h (3 Bft) 97,87 %
27.01.2023 23:56 3,2 C 2,8 C -0,6 C 88 % 1028,5 hPa 0,0 l/m 0 min 0 min 0 W/m 12,9 km/h (3 Bft) 100,00 %
27.01.2023 23:58 3,1 C 2,8 C -0,6 C 88 % 1028,4 hPa 0,0 l/m 0 min 0 min 0 W/m 9,7 km/h (2 Bft) 97,87 %
_ Min-Zeit 06:16 00:24 06:04 15:42 00:14 - - - - 07:30 22:52
Minimum _ 2,8 C 2,2 C -0,6 C 86 % 1023,5 hPa - - - - 0,0 km/h (0 Bft) 28,57 %
_ Max-Zeit 15:00 14:22 11:24 00:00 22:32 00:00 00:00 05:54 12:48 04:48 00:14
Maximum _ 5,0 C 5,0 C 1,7 C 98 % 1028,8 hPa 0,0 l/m 0 min 2 min 91 W/m 38,6 km/h
O (5 Bft)
100,00 %
Durchschnitt _ 3,7 C 3,3 C 0,6 C 91 % 1026,1 hPa #0,0 l/m #0 min. #10 min. 37 W/m 12,6 km/h (3 Bft) 96,69 %
© 2023 W. Hausmann